Time,TemperatureF,DewpointF,PressureIn,WindDirection,WindDirectionDegrees,WindSpeedMPH,WindSpeedGustMPH,Humidity,HourlyPrecipIn,Conditions,Clouds,dailyrainin,SoftwareType,DateUTC
2013-09-10 00:00:00,75.0,57.8,29.03,South,189,3.6,3.6,55,0.00,,,0.00,VWS V13.01,2013-09-10 05:00:00,
2013-09-10 00:01:00,75.0,57.8,29.03,South,189,3.1,3.1,55,0.00,,,0.00,VWS V13.01,2013-09-10 05:01:00,
2013-09-10 00:02:00,75.0,57.8,29.03,South,189,3.6,3.6,55,0.00,,,0.00,VWS V13.01,2013-09-10 05:02:00,
2013-09-10 00:03:00,75.0,57.8,29.03,South,189,3.6,3.6,55,0.00,,,0.00,VWS V13.01,2013-09-10 05:03:00,
2013-09-10 00:04:00,74.8,57.6,29.03,South,189,3.1,3.1,55,0.00,,,0.00,VWS V13.01,2013-09-10 05:04:00,
2013-09-10 00:05:00,74.8,57.6,29.03,South,189,3.6,3.6,55,0.00,,,0.00,VWS V13.01,2013-09-10 05:05:00,
2013-09-10 00:06:00,74.8,57.6,29.03,South,189,3.6,3.6,55,0.00,,,0.00,VWS V13.01,2013-09-10 05:06:00,
2013-09-10 00:07:00,74.8,57.6,29.03,South,189,3.6,3.6,55,0.00,,,0.00,VWS V13.01,2013-09-10 05:07:00,
2013-09-10 00:08:00,75.0,57.8,29.03,South,189,4.0,4.0,55,0.00,,,0.00,VWS V13.01,2013-09-10 05:08:00,
2013-09-10 00:09:00,75.0,57.8,29.03,South,189,4.0,4.0,55,0.00,,,0.00,VWS V13.01,2013-09-10 05:09:00,
2013-09-10 00:10:00,75.0,57.8,29.03,South,189,3.6,3.6,55,0.00,,,0.00,VWS V13.01,2013-09-10 05:10:00,
2013-09-10 00:11:00,75.0,57.8,29.03,South,189,3.1,3.1,55,0.00,,,0.00,VWS V13.01,2013-09-10 05:11:00,
2013-09-10 00:12:00,75.0,57.8,29.03,South,189,4.0,4.0,55,0.00,,,0.00,VWS V13.01,2013-09-10 05:12:00,
2013-09-10 00:13:00,75.0,57.8,29.03,South,189,2.7,2.7,55,0.00,,,0.00,VWS V13.01,2013-09-10 05:13:00,
2013-09-10 00:14:00,75.0,57.8,29.03,South,189,3.6,3.6,55,0.00,,,0.00,VWS V13.01,2013-09-10 05:14:00,
2013-09-10 00:15:00,75.0,57.8,29.03,South,189,4.5,4.5,55,0.00,,,0.00,VWS V13.01,2013-09-10 05:15:00,
2013-09-10 00:16:00,75.0,57.8,29.03,South,189,4.0,4.0,55,0.00,,,0.00,VWS V13.01,2013-09-10 05:16:00,
2013-09-10 00:17:00,75.0,57.8,29.03,South,189,3.6,3.6,55,0.00,,,0.00,VWS V13.01,2013-09-10 05:17:00,
2013-09-10 00:18:00,75.0,57.8,29.03,South,189,4.0,4.0,55,0.00,,,0.00,VWS V13.01,2013-09-10 05:18:00,
2013-09-10 00:19:00,74.8,57.6,29.03,South,189,3.6,3.6,55,0.00,,,0.00,VWS V13.01,2013-09-10 05:19:00,
2013-09-10 00:20:00,74.8,57.6,29.03,South,189,4.0,4.0,55,0.00,,,0.00,VWS V13.01,2013-09-10 05:20:00,
2013-09-10 00:21:00,74.8,57.6,29.03,South,189,3.6,3.6,55,0.00,,,0.00,VWS V13.01,2013-09-10 05:21:00,
2013-09-10 00:22:00,74.8,57.6,29.03,South,189,4.0,4.0,55,0.00,,,0.00,VWS V13.01,2013-09-10 05:22:00,
2013-09-10 00:23:00,74.8,57.6,29.03,South,189,4.0,4.0,55,0.00,,,0.00,VWS V13.01,2013-09-10 05:23:00,
2013-09-10 00:24:00,74.8,57.6,29.03,South,189,3.6,3.6,55,0.00,,,0.00,VWS V13.01,2013-09-10 05:24:00,
2013-09-10 00:25:00,74.7,57.4,29.03,South,189,3.6,3.6,55,0.00,,,0.00,VWS V13.01,2013-09-10 05:25:00,
2013-09-10 00:26:00,74.7,57.4,29.03,South,189,4.0,4.0,55,0.00,,,0.00,VWS V13.01,2013-09-10 05:26:00,
2013-09-10 00:27:00,74.7,57.4,29.03,South,189,4.0,4.0,55,0.00,,,0.00,VWS V13.01,2013-09-10 05:27:00,
2013-09-10 00:28:00,74.7,57.4,29.03,South,189,4.9,4.9,55,0.00,,,0.00,VWS V13.01,2013-09-10 05:28:00,
2013-09-10 00:29:00,74.8,57.6,29.03,South,189,4.0,4.0,55,0.00,,,0.00,VWS V13.01,2013-09-10 05:29:00,
2013-09-10 00:30:00,74.8,57.6,29.03,South,189,3.6,3.6,55,0.00,,,0.00,VWS V13.01,2013-09-10 05:30:00,
2013-09-10 00:31:00,74.8,57.6,29.03,South,189,3.6,3.6,55,0.00,,,0.00,VWS V13.01,2013-09-10 05:31:00,
2013-09-10 00:32:00,74.7,57.4,29.03,South,189,2.7,2.7,55,0.00,,,0.00,VWS V13.01,2013-09-10 05:32:00,
2013-09-10 00:33:00,74.8,50.9,29.03,South,189,4.0,4.0,43,0.00,,,0.00,VWS V13.01,2013-09-10 05:33:00,
2013-09-10 00:34:00,74.8,50.9,29.03,South,189,4.0,4.0,43,0.00,,,0.00,VWS V13.01,2013-09-10 05:34:00,
2013-09-10 00:35:00,74.8,50.9,29.03,South,189,3.6,3.6,43,0.00,,,0.00,VWS V13.01,2013-09-10 05:35:00,
2013-09-10 00:36:00,74.7,57.4,29.03,South,189,3.6,3.6,55,0.00,,,0.00,VWS V13.01,2013-09-10 05:36:00,
2013-09-10 00:37:00,74.7,57.4,29.03,South,189,4.0,4.0,55,0.00,,,0.00,VWS V13.01,2013-09-10 05:37:00,
2013-09-10 00:38:00,74.7,57.4,29.03,South,189,3.1,3.1,55,0.00,,,0.00,VWS V13.01,2013-09-10 05:38:00,
2013-09-10 00:39:00,74.7,57.4,29.03,South,189,4.0,4.0,55,0.00,,,0.00,VWS V13.01,2013-09-10 05:39:00,
2013-09-10 00:40:00,74.7,57.4,29.03,South,189,4.9,4.9,55,0.00,,,0.00,VWS V13.01,2013-09-10 05:40:00,
2013-09-10 00:41:00,74.8,57.6,29.03,South,189,4.0,4.0,55,0.00,,,0.00,VWS V13.01,2013-09-10 05:41:00,
2013-09-10 00:42:00,74.8,57.6,29.03,South,189,3.1,3.1,55,0.00,,,0.00,VWS V13.01,2013-09-10 05:42:00,
2013-09-10 00:43:00,74.7,57.4,29.03,South,189,3.6,3.6,55,0.00,,,0.00,VWS V13.01,2013-09-10 05:43:00,
2013-09-10 00:44:00,74.7,57.4,29.03,South,189,4.0,4.0,55,0.00,,,0.00,VWS V13.01,2013-09-10 05:44:00,
2013-09-10 00:45:00,74.7,57.4,29.03,South,189,4.0,4.0,55,0.00,,,0.00,VWS V13.01,2013-09-10 05:45:00,
2013-09-10 00:46:00,74.5,57.3,29.03,South,189,3.1,3.1,55,0.00,,,0.00,VWS V13.01,2013-09-10 05:46:00,
2013-09-10 00:47:00,74.5,57.3,29.03,South,189,4.0,4.0,55,0.00,,,0.00,VWS V13.01,2013-09-10 05:47:00,
2013-09-10 00:48:00,74.5,57.3,29.03,South,189,3.6,3.6,55,0.00,,,0.00,VWS V13.01,2013-09-10 05:48:00,
2013-09-10 00:49:00,74.5,57.3,29.03,South,189,3.6,3.6,55,0.00,,,0.00,VWS V13.01,2013-09-10 05:49:00,
2013-09-10 00:50:00,74.5,57.3,29.03,South,189,3.6,3.6,55,0.00,,,0.00,VWS V13.01,2013-09-10 05:50:00,
2013-09-10 00:51:00,74.5,57.3,29.03,South,189,2.7,2.7,55,0.00,,,0.00,VWS V13.01,2013-09-10 05:51:00,
2013-09-10 00:52:00,74.5,57.3,29.03,South,189,4.0,4.0,55,0.00,,,0.00,VWS V13.01,2013-09-10 05:52:00,
2013-09-10 00:53:00,74.5,57.3,29.03,South,189,4.5,4.5,55,0.00,,,0.00,VWS V13.01,2013-09-10 05:53:00,
2013-09-10 00:54:00,74.5,57.3,29.03,South,189,4.0,4.0,55,0.00,,,0.00,VWS V13.01,2013-09-10 05:54:00,
2013-09-10 00:55:00,74.7,57.4,29.03,South,189,4.0,4.0,55,0.00,,,0.00,VWS V13.01,2013-09-10 05:55:00,
2013-09-10 00:56:00,74.7,57.4,29.03,South,189,4.0,4.0,55,0.00,,,0.00,VWS V13.01,2013-09-10 05:56:00,
2013-09-10 00:57:00,74.7,57.4,29.03,South,189,4.0,4.0,55,0.00,,,0.00,VWS V13.01,2013-09-10 05:57:00,
2013-09-10 00:58:00,74.7,57.4,29.03,South,189,3.6,3.6,55,0.00,,,0.00,VWS V13.01,2013-09-10 05:58:00,
2013-09-10 00:59:00,74.8,57.6,29.03,South,189,4.9,4.9,55,0.00,,,0.00,VWS V13.01,2013-09-10 05:59:00,
2013-09-10 01:00:00,74.8,57.6,29.03,South,189,3.6,3.6,55,0.00,,,0.00,VWS V13.01,2013-09-10 06:00:00,
2013-09-10 01:01:00,74.7,57.4,29.03,South,189,4.0,4.0,55,0.00,,,0.00,VWS V13.01,2013-09-10 06:01:00,
2013-09-10 01:02:00,74.7,57.4,29.03,South,189,3.1,3.1,55,0.00,,,0.00,VWS V13.01,2013-09-10 06:02:00,
2013-09-10 01:03:00,74.7,57.4,29.03,South,189,3.6,3.6,55,0.00,,,0.00,VWS V13.01,2013-09-10 06:03:00,
2013-09-10 01:04:00,74.7,57.4,29.03,South,189,3.1,3.1,55,0.00,,,0.00,VWS V13.01,2013-09-10 06:04:00,
2013-09-10 01:05:00,74.5,57.3,29.03,South,189,3.1,3.1,55,0.00,,,0.00,VWS V13.01,2013-09-10 06:05:00,
2013-09-10 01:06:00,74.7,57.4,29.03,South,189,4.0,4.0,55,0.00,,,0.00,VWS V13.01,2013-09-10 06:06:00,
2013-09-10 01:07:00,74.5,57.3,29.03,South,189,4.0,4.0,55,0.00,,,0.00,VWS V13.01,2013-09-10 06:07:00,
2013-09-10 01:08:00,74.5,57.3,29.03,South,189,4.5,4.5,55,0.00,,,0.00,VWS V13.01,2013-09-10 06:08:00,
2013-09-10 01:09:00,74.5,57.3,29.03,South,189,3.1,3.1,55,0.00,,,0.00,VWS V13.01,2013-09-10 06:09:00,
2013-09-10 01:10:00,74.5,57.3,29.03,South,189,4.0,4.0,55,0.00,,,0.00,VWS V13.01,2013-09-10 06:10:00,
2013-09-10 01:11:00,74.5,57.3,29.03,South,189,3.6,3.6,55,0.00,,,0.00,VWS V13.01,2013-09-10 06:11:00,
2013-09-10 01:12:00,74.5,57.3,29.03,South,189,4.0,4.0,55,0.00,,,0.00,VWS V13.01,2013-09-10 06:12:00,
2013-09-10 01:13:00,74.5,57.3,29.03,South,189,3.6,3.6,55,0.00,,,0.00,VWS V13.01,2013-09-10 06:13:00,
2013-09-10 01:14:00,74.5,57.3,29.03,South,189,3.1,3.1,55,0.00,,,0.00,VWS V13.01,2013-09-10 06:14:00,
2013-09-10 01:15:00,74.5,57.3,29.03,South,189,3.1,3.1,55,0.00,,,0.00,VWS V13.01,2013-09-10 06:15:00,
2013-09-10 01:16:00,74.5,57.3,29.03,South,189,4.9,4.9,55,0.00,,,0.00,VWS V13.01,2013-09-10 06:16:00,
2013-09-10 01:17:00,74.5,57.3,29.03,South,189,4.0,4.0,55,0.00,,,0.00,VWS V13.01,2013-09-10 06:17:00,
2013-09-10 01:18:00,74.5,57.3,29.03,South,189,4.9,4.9,55,0.00,,,0.00,VWS V13.01,2013-09-10 06:18:00,
2013-09-10 01:19:00,74.5,57.3,29.03,South,189,2.7,2.7,55,0.00,,,0.00,VWS V13.01,2013-09-10 06:19:00,
2013-09-10 01:20:00,74.5,57.3,29.03,South,189,3.6,3.6,55,0.00,,,0.00,VWS V13.01,2013-09-10 06:20:00,
2013-09-10 01:21:00,74.5,57.3,29.03,South,189,3.6,3.6,55,0.00,,,0.00,VWS V13.01,2013-09-10 06:21:00,
2013-09-10 01:22:00,74.5,57.3,29.03,South,189,3.6,3.6,55,0.00,,,0.00,VWS V13.01,2013-09-10 06:22:00,
2013-09-10 01:23:00,74.5,57.3,29.03,South,189,5.4,5.4,55,0.00,,,0.00,VWS V13.01,2013-09-10 06:23:00,
2013-09-10 01:24:00,74.5,57.3,29.03,South,189,4.0,4.0,55,0.00,,,0.00,VWS V13.01,2013-09-10 06:24:00,
2013-09-10 01:25:00,74.5,57.3,29.06,South,189,4.9,4.9,55,0.00,,,0.00,VWS V13.01,2013-09-10 06:25:00,
2013-09-10 01:26:00,74.3,57.1,29.06,South,189,4.9,4.9,55,0.00,,,0.00,VWS V13.01,2013-09-10 06:26:00,
2013-09-10 01:27:00,74.3,57.1,29.06,South,189,4.9,4.9,55,0.00,,,0.00,VWS V13.01,2013-09-10 06:27:00,
2013-09-10 01:28:00,74.3,57.1,29.06,South,189,4.9,4.9,55,0.00,,,0.00,VWS V13.01,2013-09-10 06:28:00,
2013-09-10 01:29:00,74.3,57.1,29.06,South,189,4.9,4.9,55,0.00,,,0.00,VWS V13.01,2013-09-10 06:29:00,
2013-09-10 01:30:00,74.3,57.1,29.06,South,189,4.0,4.0,55,0.00,,,0.00,VWS V13.01,2013-09-10 06:30:00,
2013-09-10 01:31:00,74.3,57.1,29.06,South,189,4.9,4.9,55,0.00,,,0.00,VWS V13.01,2013-09-10 06:31:00,
2013-09-10 01:32:00,74.1,56.9,29.06,South,189,4.0,4.0,55,0.00,,,0.00,VWS V13.01,2013-09-10 06:32:00,
2013-09-10 01:33:00,74.1,56.9,29.06,South,189,4.0,4.0,55,0.00,,,0.00,VWS V13.01,2013-09-10 06:33:00,
2013-09-10 01:34:00,74.1,56.9,29.06,South,189,4.0,4.0,55,0.00,,,0.00,VWS V13.01,2013-09-10 06:34:00,
2013-09-10 01:35:00,74.1,56.9,29.06,South,189,4.0,4.0,55,0.00,,,0.00,VWS V13.01,2013-09-10 06:35:00,
2013-09-10 01:36:00,74.1,56.9,29.06,South,189,4.5,4.5,55,0.00,,,0.00,VWS V13.01,2013-09-10 06:36:00,
2013-09-10 01:37:00,74.1,56.9,29.06,South,189,4.0,4.0,55,0.00,,,0.00,VWS V13.01,2013-09-10 06:37:00,
2013-09-10 01:38:00,74.1,56.9,29.06,South,189,4.0,4.0,55,0.00,,,0.00,VWS V13.01,2013-09-10 06:38:00,
2013-09-10 01:39:00,74.1,56.9,29.06,South,189,4.5,4.5,55,0.00,,,0.00,VWS V13.01,2013-09-10 06:39:00,
2013-09-10 01:40:00,74.1,56.9,29.06,South,189,4.0,4.0,55,0.00,,,0.00,VWS V13.01,2013-09-10 06:40:00,
2013-09-10 01:41:00,74.1,56.9,29.06,South,189,4.9,4.9,55,0.00,,,0.00,VWS V13.01,2013-09-10 06:41:00,
2013-09-10 01:42:00,74.1,56.9,29.06,South,189,4.9,4.9,55,0.00,,,0.00,VWS V13.01,2013-09-10 06:42:00,
2013-09-10 01:43:00,74.1,56.9,29.06,South,189,4.5,4.5,55,0.00,,,0.00,VWS V13.01,2013-09-10 06:43:00,
2013-09-10 01:44:00,74.1,56.9,29.06,South,189,4.9,4.9,55,0.00,,,0.00,VWS V13.01,2013-09-10 06:44:00,
2013-09-10 01:45:00,74.1,56.9,29.06,South,189,5.4,5.4,55,0.00,,,0.00,VWS V13.01,2013-09-10 06:45:00,
2013-09-10 01:46:00,74.1,56.9,29.06,South,189,4.9,4.9,55,0.00,,,0.00,VWS V13.01,2013-09-10 06:46:00,
2013-09-10 01:47:00,74.1,56.9,29.06,South,189,5.4,5.4,55,0.00,,,0.00,VWS V13.01,2013-09-10 06:47:00,
2013-09-10 01:48:00,74.1,56.9,29.06,South,189,4.5,4.5,55,0.00,,,0.00,VWS V13.01,2013-09-10 06:48:00,
2013-09-10 01:49:00,74.1,56.9,29.06,South,189,3.6,3.6,55,0.00,,,0.00,VWS V13.01,2013-09-10 06:49:00,
2013-09-10 01:50:00,74.1,56.9,29.06,South,189,4.0,4.0,55,0.00,,,0.00,VWS V13.01,2013-09-10 06:50:00,
2013-09-10 01:51:00,73.9,56.8,29.06,South,189,4.9,4.9,55,0.00,,,0.00,VWS V13.01,2013-09-10 06:51:00,
2013-09-10 01:52:00,73.9,56.8,29.06,South,189,4.5,4.5,55,0.00,,,0.00,VWS V13.01,2013-09-10 06:52:00,
2013-09-10 01:53:00,73.9,56.8,29.06,South,189,4.0,4.0,55,0.00,,,0.00,VWS V13.01,2013-09-10 06:53:00,
2013-09-10 01:54:00,73.8,56.6,29.06,South,189,4.5,4.5,55,0.00,,,0.00,VWS V13.01,2013-09-10 06:54:00,
2013-09-10 01:55:00,73.8,56.6,29.06,South,189,3.6,3.6,55,0.00,,,0.00,VWS V13.01,2013-09-10 06:55:00,
2013-09-10 01:56:00,73.8,56.6,29.06,South,189,3.6,3.6,55,0.00,,,0.00,VWS V13.01,2013-09-10 06:56:00,
2013-09-10 01:57:00,73.6,56.4,29.06,South,189,4.5,4.5,55,0.00,,,0.00,VWS V13.01,2013-09-10 06:57:00,
2013-09-10 01:58:00,73.6,56.4,29.06,South,189,4.0,4.0,55,0.00,,,0.00,VWS V13.01,2013-09-10 06:58:00,
2013-09-10 01:59:00,73.6,56.4,29.06,South,189,4.0,4.0,55,0.00,,,0.00,VWS V13.01,2013-09-10 06:59:00,
2013-09-10 02:00:00,73.6,56.4,29.06,South,189,4.0,4.0,55,0.00,,,0.00,VWS V13.01,2013-09-10 07:00:00,
2013-09-10 02:01:00,73.4,56.3,29.06,South,189,4.0,4.0,55,0.00,,,0.00,VWS V13.01,2013-09-10 07:01:00,
2013-09-10 02:02:00,73.4,56.3,29.06,South,178,5.4,5.4,55,0.00,,,0.00,VWS V13.01,2013-09-10 07:02:00,
2013-09-10 02:03:00,73.4,56.3,29.06,South,185,4.0,4.0,55,0.00,,,0.00,VWS V13.01,2013-09-10 07:03:00,
2013-09-10 02:04:00,73.4,56.3,29.06,South,185,3.1,3.1,55,0.00,,,0.00,VWS V13.01,2013-09-10 07:04:00,
2013-09-10 02:05:00,73.4,56.3,29.06,South,185,4.0,4.0,55,0.00,,,0.00,VWS V13.01,2013-09-10 07:05:00,
2013-09-10 02:06:00,73.4,56.3,29.06,South,185,4.0,4.0,55,0.00,,,0.00,VWS V13.01,2013-09-10 07:06:00,
2013-09-10 02:07:00,73.4,56.3,29.06,South,185,3.6,3.6,55,0.00,,,0.00,VWS V13.01,2013-09-10 07:07:00,
2013-09-10 02:08:00,73.4,56.3,29.06,South,185,4.0,4.0,55,0.00,,,0.00,VWS V13.01,2013-09-10 07:08:00,
2013-09-10 02:09:00,73.4,56.3,29.06,South,185,3.6,3.6,55,0.00,,,0.00,VWS V13.01,2013-09-10 07:09:00,
2013-09-10 02:10:00,73.4,56.3,29.06,South,185,3.1,3.1,55,0.00,,,0.00,VWS V13.01,2013-09-10 07:10:00,
2013-09-10 02:11:00,73.4,56.3,29.06,South,185,4.0,4.0,55,0.00,,,0.00,VWS V13.01,2013-09-10 07:11:00,
2013-09-10 02:12:00,73.4,56.3,29.06,South,185,3.6,3.6,55,0.00,,,0.00,VWS V13.01,2013-09-10 07:12:00,
2013-09-10 02:13:00,73.2,59.0,29.06,South,185,3.6,3.6,61,0.00,,,0.00,VWS V13.01,2013-09-10 07:13:00,
2013-09-10 02:14:00,73.2,59.0,29.06,South,185,3.6,3.6,61,0.00,,,0.00,VWS V13.01,2013-09-10 07:14:00,
2013-09-10 02:15:00,73.2,59.0,29.06,South,185,3.6,3.6,61,0.00,,,0.00,VWS V13.01,2013-09-10 07:15:00,
2013-09-10 02:16:00,73.2,59.0,29.06,South,185,4.0,4.0,61,0.00,,,0.00,VWS V13.01,2013-09-10 07:16:00,
2013-09-10 02:17:00,73.2,59.0,29.06,South,185,3.6,3.6,61,0.00,,,0.00,VWS V13.01,2013-09-10 07:17:00,
2013-09-10 02:18:00,73.2,59.0,29.06,South,185,3.6,3.6,61,0.00,,,0.00,VWS V13.01,2013-09-10 07:18:00,
2013-09-10 02:19:00,73.0,58.8,29.06,South,185,3.6,3.6,61,0.00,,,0.00,VWS V13.01,2013-09-10 07:19:00,
2013-09-10 02:20:00,73.0,58.8,29.06,South,185,4.0,4.0,61,0.00,,,0.00,VWS V13.01,2013-09-10 07:20:00,
2013-09-10 02:21:00,73.0,58.8,29.06,South,185,3.6,3.6,61,0.00,,,0.00,VWS V13.01,2013-09-10 07:21:00,
2013-09-10 02:22:00,73.0,58.8,29.06,South,185,3.6,3.6,61,0.00,,,0.00,VWS V13.01,2013-09-10 07:22:00,
2013-09-10 02:23:00,73.0,58.8,29.06,South,185,4.0,4.0,61,0.00,,,0.00,VWS V13.01,2013-09-10 07:23:00,
2013-09-10 02:24:00,73.0,58.8,29.06,South,185,3.6,3.6,61,0.00,,,0.00,VWS V13.01,2013-09-10 07:24:00,
2013-09-10 02:25:00,73.0,58.8,29.06,South,185,2.7,2.7,61,0.00,,,0.00,VWS V13.01,2013-09-10 07:25:00,
2013-09-10 02:26:00,73.0,58.8,29.06,South,185,4.0,4.0,61,0.00,,,0.00,VWS V13.01,2013-09-10 07:26:00,
2013-09-10 02:27:00,73.0,58.8,29.06,South,185,3.6,3.6,61,0.00,,,0.00,VWS V13.01,2013-09-10 07:27:00,
2013-09-10 02:28:00,73.0,58.8,29.06,South,185,3.6,3.6,61,0.00,,,0.00,VWS V13.01,2013-09-10 07:28:00,
2013-09-10 02:29:00,73.0,58.8,29.06,South,185,3.1,3.1,61,0.00,,,0.00,VWS V13.01,2013-09-10 07:29:00,
2013-09-10 02:30:00,73.0,58.8,29.06,South,185,3.1,3.1,61,0.00,,,0.00,VWS V13.01,2013-09-10 07:30:00,
2013-09-10 02:31:00,73.0,58.8,29.06,South,185,4.0,4.0,61,0.00,,,0.00,VWS V13.01,2013-09-10 07:31:00,
2013-09-10 02:32:00,73.2,59.0,29.06,South,185,4.0,4.0,61,0.00,,,0.00,VWS V13.01,2013-09-10 07:32:00,
2013-09-10 02:33:00,73.2,59.0,29.06,South,185,3.6,3.6,61,0.00,,,0.00,VWS V13.01,2013-09-10 07:33:00,
2013-09-10 02:34:00,73.2,59.0,29.06,South,185,3.6,3.6,61,0.00,,,0.00,VWS V13.01,2013-09-10 07:34:00,
2013-09-10 02:35:00,73.2,59.0,29.06,South,185,3.6,3.6,61,0.00,,,0.00,VWS V13.01,2013-09-10 07:35:00,
2013-09-10 02:36:00,73.2,59.0,29.06,South,185,4.0,4.0,61,0.00,,,0.00,VWS V13.01,2013-09-10 07:36:00,
2013-09-10 02:37:00,73.2,59.0,29.06,South,185,4.0,4.0,61,0.00,,,0.00,VWS V13.01,2013-09-10 07:37:00,
2013-09-10 02:38:00,73.2,59.0,29.06,South,185,4.5,4.5,61,0.00,,,0.00,VWS V13.01,2013-09-10 07:38:00,
2013-09-10 02:39:00,73.2,59.0,29.06,South,185,3.6,3.6,61,0.00,,,0.00,VWS V13.01,2013-09-10 07:39:00,
2013-09-10 02:40:00,73.0,58.8,29.06,South,185,4.0,4.0,61,0.00,,,0.00,VWS V13.01,2013-09-10 07:40:00,
2013-09-10 02:41:00,73.0,58.8,29.06,South,185,4.0,4.0,61,0.00,,,0.00,VWS V13.01,2013-09-10 07:41:00,
2013-09-10 02:42:00,73.0,58.8,29.06,South,185,4.0,4.0,61,0.00,,,0.00,VWS V13.01,2013-09-10 07:42:00,
2013-09-10 02:43:00,73.0,58.8,29.06,South,185,3.6,3.6,61,0.00,,,0.00,VWS V13.01,2013-09-10 07:43:00,
2013-09-10 02:44:00,73.0,58.8,29.06,South,185,5.8,5.8,61,0.00,,,0.00,VWS V13.01,2013-09-10 07:44:00,
2013-09-10 02:45:00,73.0,58.8,29.06,South,185,4.9,4.9,61,0.00,,,0.00,VWS V13.01,2013-09-10 07:45:00,
2013-09-10 02:46:00,73.0,58.8,29.06,South,185,3.6,3.6,61,0.00,,,0.00,VWS V13.01,2013-09-10 07:46:00,
2013-09-10 02:47:00,73.0,58.8,29.06,South,185,3.6,3.6,61,0.00,,,0.00,VWS V13.01,2013-09-10 07:47:00,
2013-09-10 02:48:00,73.0,58.8,29.06,South,185,4.0,4.0,61,0.00,,,0.00,VWS V13.01,2013-09-10 07:48:00,
2013-09-10 02:49:00,73.0,58.8,29.06,South,185,4.9,4.9,61,0.00,,,0.00,VWS V13.01,2013-09-10 07:49:00,
2013-09-10 02:50:00,73.0,58.8,29.06,South,185,4.0,4.0,61,0.00,,,0.00,VWS V13.01,2013-09-10 07:50:00,
2013-09-10 02:51:00,73.0,58.8,29.06,South,185,5.8,5.8,61,0.00,,,0.00,VWS V13.01,2013-09-10 07:51:00,
2013-09-10 02:52:00,72.9,58.6,29.06,South,185,3.6,3.6,61,0.00,,,0.00,VWS V13.01,2013-09-10 07:52:00,
2013-09-10 02:53:00,72.9,58.6,29.06,South,185,4.9,4.9,61,0.00,,,0.00,VWS V13.01,2013-09-10 07:53:00,
2013-09-10 02:54:00,73.0,58.8,29.06,South,185,4.0,4.0,61,0.00,,,0.00,VWS V13.01,2013-09-10 07:54:00,
2013-09-10 02:55:00,73.0,58.8,29.06,South,185,3.6,3.6,61,0.00,,,0.00,VWS V13.01,2013-09-10 07:55:00,
2013-09-10 02:56:00,73.0,58.8,29.06,South,185,4.0,4.0,61,0.00,,,0.00,VWS V13.01,2013-09-10 07:56:00,
2013-09-10 02:57:00,72.9,58.6,29.06,South,185,4.0,4.0,61,0.00,,,0.00,VWS V13.01,2013-09-10 07:57:00,
2013-09-10 02:58:00,72.9,58.6,29.06,South,185,4.9,4.9,61,0.00,,,0.00,VWS V13.01,2013-09-10 07:58:00,
2013-09-10 02:59:00,72.9,58.6,29.06,South,185,4.5,4.5,61,0.00,,,0.00,VWS V13.01,2013-09-10 07:59:00,
2013-09-10 03:00:00,72.9,58.6,29.06,South,185,4.0,4.0,61,0.00,,,0.00,VWS V13.01,2013-09-10 08:00:00,
2013-09-10 03:01:00,72.9,58.6,29.06,South,185,4.0,4.0,61,0.00,,,0.00,VWS V13.01,2013-09-10 08:01:00,
2013-09-10 03:02:00,72.9,58.6,29.06,South,185,5.4,5.4,61,0.00,,,0.00,VWS V13.01,2013-09-10 08:02:00,
2013-09-10 03:03:00,72.7,58.5,29.06,South,185,4.5,4.5,61,0.00,,,0.00,VWS V13.01,2013-09-10 08:03:00,
2013-09-10 03:04:00,72.7,58.5,29.06,South,185,4.9,4.9,61,0.00,,,0.00,VWS V13.01,2013-09-10 08:04:00,
2013-09-10 03:05:00,72.7,58.5,29.06,South,185,4.9,4.9,61,0.00,,,0.00,VWS V13.01,2013-09-10 08:05:00,
2013-09-10 03:06:00,72.5,58.3,29.06,South,185,4.9,4.9,61,0.00,,,0.00,VWS V13.01,2013-09-10 08:06:00,
2013-09-10 03:07:00,72.5,58.3,29.06,South,185,4.9,4.9,61,0.00,,,0.00,VWS V13.01,2013-09-10 08:07:00,
2013-09-10 03:08:00,72.5,58.3,29.06,South,185,4.9,4.9,61,0.00,,,0.00,VWS V13.01,2013-09-10 08:08:00,
2013-09-10 03:09:00,72.5,58.3,29.06,South,185,5.4,5.4,61,0.00,,,0.00,VWS V13.01,2013-09-10 08:09:00,
2013-09-10 03:10:00,72.5,58.3,29.06,South,185,5.8,5.8,61,0.00,,,0.00,VWS V13.01,2013-09-10 08:10:00,
2013-09-10 03:11:00,72.5,58.3,29.06,South,185,4.0,4.0,61,0.00,,,0.00,VWS V13.01,2013-09-10 08:11:00,
2013-09-10 03:12:00,72.5,58.3,29.06,South,185,5.4,5.4,61,0.00,,,0.00,VWS V13.01,2013-09-10 08:12:00,
2013-09-10 03:13:00,72.5,58.3,29.06,South,185,5.8,5.8,61,0.00,,,0.00,VWS V13.01,2013-09-10 08:13:00,
2013-09-10 03:14:00,72.3,58.1,29.06,South,185,4.9,4.9,61,0.00,,,0.00,VWS V13.01,2013-09-10 08:14:00,
2013-09-10 03:15:00,72.3,58.1,29.06,South,185,4.9,4.9,61,0.00,,,0.00,VWS V13.01,2013-09-10 08:15:00,
2013-09-10 03:16:00,72.3,58.1,29.06,South,185,4.9,4.9,61,0.00,,,0.00,VWS V13.01,2013-09-10 08:16:00,
2013-09-10 03:17:00,72.3,58.1,29.06,South,185,4.9,4.9,61,0.00,,,0.00,VWS V13.01,2013-09-10 08:17:00,
2013-09-10 03:18:00,72.3,58.1,29.06,South,185,4.0,4.0,61,0.00,,,0.00,VWS V13.01,2013-09-10 08:18:00,
2013-09-10 03:19:00,72.3,58.1,29.06,South,185,5.4,5.4,61,0.00,,,0.00,VWS V13.01,2013-09-10 08:19:00,
2013-09-10 03:20:00,72.3,58.1,29.06,South,185,5.4,5.4,61,0.00,,,0.00,VWS V13.01,2013-09-10 08:20:00,
2013-09-10 03:21:00,72.3,58.1,29.06,South,185,4.9,4.9,61,0.00,,,0.00,VWS V13.01,2013-09-10 08:21:00,
2013-09-10 03:22:00,72.3,58.1,29.06,South,185,4.9,4.9,61,0.00,,,0.00,VWS V13.01,2013-09-10 08:22:00,
2013-09-10 03:23:00,72.3,58.1,29.06,South,185,4.0,4.0,61,0.00,,,0.00,VWS V13.01,2013-09-10 08:23:00,
2013-09-10 03:24:00,72.3,58.1,29.06,South,185,5.4,5.4,61,0.00,,,0.00,VWS V13.01,2013-09-10 08:24:00,
2013-09-10 03:25:00,72.3,58.1,29.06,South,185,4.9,4.9,61,0.00,,,0.00,VWS V13.01,2013-09-10 08:25:00,
2013-09-10 03:26:00,72.1,58.0,29.06,South,186,4.9,4.9,61,0.00,,,0.00,VWS V13.01,2013-09-10 08:26:00,
2013-09-10 03:27:00,72.1,58.0,29.06,South,186,5.4,5.4,61,0.00,,,0.00,VWS V13.01,2013-09-10 08:27:00,
2013-09-10 03:28:00,72.1,58.0,29.06,South,186,5.8,5.8,61,0.00,,,0.00,VWS V13.01,2013-09-10 08:28:00,
2013-09-10 03:29:00,72.1,58.0,29.06,SSW,192,5.4,5.4,61,0.00,,,0.00,VWS V13.01,2013-09-10 08:29:00,
2013-09-10 03:30:00,72.3,58.1,29.06,SSW,192,5.4,5.4,61,0.00,,,0.00,VWS V13.01,2013-09-10 08:30:00,
2013-09-10 03:31:00,72.3,58.1,29.06,SSW,192,5.4,5.4,61,0.00,,,0.00,VWS V13.01,2013-09-10 08:31:00,
2013-09-10 03:32:00,72.1,58.0,29.06,SSW,192,4.9,4.9,61,0.00,,,0.00,VWS V13.01,2013-09-10 08:32:00,
2013-09-10 03:33:00,72.1,58.0,29.06,SSW,192,5.4,5.4,61,0.00,,,0.00,VWS V13.01,2013-09-10 08:33:00,
2013-09-10 03:34:00,72.1,58.0,29.06,SSW,192,5.4,5.4,61,0.00,,,0.00,VWS V13.01,2013-09-10 08:34:00,
2013-09-10 03:35:00,72.1,58.0,29.06,SSW,192,5.4,5.4,61,0.00,,,0.00,VWS V13.01,2013-09-10 08:35:00,
2013-09-10 03:36:00,72.1,58.0,29.06,SSW,196,5.8,5.8,61,0.00,,,0.00,VWS V13.01,2013-09-10 08:36:00,
2013-09-10 03:37:00,72.1,58.0,29.06,South,188,5.8,5.8,61,0.00,,,0.00,VWS V13.01,2013-09-10 08:37:00,
2013-09-10 03:38:00,72.1,58.0,29.06,South,188,4.9,4.9,61,0.00,,,0.00,VWS V13.01,2013-09-10 08:38:00,
2013-09-10 03:39:00,72.1,58.0,29.06,South,186,6.3,6.3,61,0.00,,,0.00,VWS V13.01,2013-09-10 08:39:00,
2013-09-10 03:40:00,72.1,58.0,29.06,South,186,6.3,6.3,61,0.00,,,0.00,VWS V13.01,2013-09-10 08:40:00,
2013-09-10 03:41:00,72.1,58.0,29.06,South,186,5.4,5.4,61,0.00,,,0.00,VWS V13.01,2013-09-10 08:41:00,
2013-09-10 03:42:00,72.1,58.0,29.06,South,186,4.9,4.9,61,0.00,,,0.00,VWS V13.01,2013-09-10 08:42:00,
2013-09-10 03:43:00,72.1,58.0,29.06,South,186,5.4,5.4,61,0.00,,,0.00,VWS V13.01,2013-09-10 08:43:00,
2013-09-10 03:44:00,72.1,58.0,29.06,South,186,5.4,5.4,61,0.00,,,0.00,VWS V13.01,2013-09-10 08:44:00,
2013-09-10 03:45:00,72.0,57.8,29.06,South,186,4.9,4.9,61,0.00,,,0.00,VWS V13.01,2013-09-10 08:45:00,
2013-09-10 03:46:00,72.0,57.8,29.06,South,186,5.4,5.4,61,0.00,,,0.00,VWS V13.01,2013-09-10 08:46:00,
2013-09-10 03:47:00,72.0,57.8,29.06,South,186,4.0,4.0,61,0.00,,,0.00,VWS V13.01,2013-09-10 08:47:00,
2013-09-10 03:48:00,72.0,57.8,29.06,South,186,4.9,4.9,61,0.00,,,0.00,VWS V13.01,2013-09-10 08:48:00,
2013-09-10 03:49:00,72.0,57.8,29.06,South,186,4.0,4.0,61,0.00,,,0.00,VWS V13.01,2013-09-10 08:49:00,
2013-09-10 03:50:00,71.8,57.6,29.06,South,186,4.9,4.9,61,0.00,,,0.00,VWS V13.01,2013-09-10 08:50:00,
2013-09-10 03:51:00,71.8,57.6,29.06,South,186,4.0,4.0,61,0.00,,,0.00,VWS V13.01,2013-09-10 08:51:00,
2013-09-10 03:52:00,71.8,57.6,29.06,South,186,3.6,3.6,61,0.00,,,0.00,VWS V13.01,2013-09-10 08:52:00,
2013-09-10 03:53:00,71.6,57.5,29.06,South,186,4.0,4.0,61,0.00,,,0.00,VWS V13.01,2013-09-10 08:53:00,
2013-09-10 03:54:00,71.4,57.3,29.06,South,186,3.6,3.6,61,0.00,,,0.00,VWS V13.01,2013-09-10 08:54:00,
2013-09-10 03:55:00,71.4,57.3,29.06,South,186,3.6,3.6,61,0.00,,,0.00,VWS V13.01,2013-09-10 08:55:00,
2013-09-10 03:56:00,71.4,57.3,29.06,South,186,4.0,4.0,61,0.00,,,0.00,VWS V13.01,2013-09-10 08:56:00,
2013-09-10 03:57:00,71.4,57.3,29.06,South,186,4.0,4.0,61,0.00,,,0.00,VWS V13.01,2013-09-10 08:57:00,
2013-09-10 03:58:00,71.4,57.3,29.06,South,186,4.0,4.0,61,0.00,,,0.00,VWS V13.01,2013-09-10 08:58:00,
2013-09-10 03:59:00,71.2,57.1,29.06,South,186,4.0,4.0,61,0.00,,,0.00,VWS V13.01,2013-09-10 08:59:00,
2013-09-10 04:00:00,71.2,57.1,29.06,South,186,4.9,4.9,61,0.00,,,0.00,VWS V13.01,2013-09-10 09:00:00,
2013-09-10 04:01:00,71.2,57.1,29.06,South,186,4.0,4.0,61,0.00,,,0.00,VWS V13.01,2013-09-10 09:01:00,
2013-09-10 04:02:00,71.2,57.1,29.06,South,186,4.0,4.0,61,0.00,,,0.00,VWS V13.01,2013-09-10 09:02:00,
2013-09-10 04:03:00,71.2,57.1,29.06,South,186,3.6,3.6,61,0.00,,,0.00,VWS V13.01,2013-09-10 09:03:00,
2013-09-10 04:04:00,71.2,57.1,29.06,South,186,4.0,4.0,61,0.00,,,0.00,VWS V13.01,2013-09-10 09:04:00,
2013-09-10 04:05:00,71.2,57.1,29.06,South,186,4.0,4.0,61,0.00,,,0.00,VWS V13.01,2013-09-10 09:05:00,
2013-09-10 04:06:00,71.2,57.1,29.06,South,186,3.6,3.6,61,0.00,,,0.00,VWS V13.01,2013-09-10 09:06:00,
2013-09-10 04:07:00,71.2,57.1,29.06,South,186,3.6,3.6,61,0.00,,,0.00,VWS V13.01,2013-09-10 09:07:00,
2013-09-10 04:08:00,71.2,57.1,29.06,South,186,3.1,3.1,61,0.00,,,0.00,VWS V13.01,2013-09-10 09:08:00,
2013-09-10 04:09:00,71.2,57.1,29.06,South,186,3.6,3.6,61,0.00,,,0.00,VWS V13.01,2013-09-10 09:09:00,
2013-09-10 04:10:00,71.4,57.3,29.06,South,186,4.0,4.0,61,0.00,,,0.00,VWS V13.01,2013-09-10 09:10:00,
2013-09-10 04:11:00,71.4,57.3,29.06,South,186,4.0,4.0,61,0.00,,,0.00,VWS V13.01,2013-09-10 09:11:00,
2013-09-10 04:12:00,71.2,57.1,29.06,South,186,4.0,4.0,61,0.00,,,0.00,VWS V13.01,2013-09-10 09:12:00,
2013-09-10 04:13:00,71.2,57.1,29.06,South,186,3.6,3.6,61,0.00,,,0.00,VWS V13.01,2013-09-10 09:13:00,
2013-09-10 04:14:00,71.2,57.1,29.06,South,185,4.0,4.0,61,0.00,,,0.00,VWS V13.01,2013-09-10 09:14:00,
2013-09-10 04:15:00,71.1,57.0,29.06,South,185,4.0,4.0,61,0.00,,,0.00,VWS V13.01,2013-09-10 09:15:00,
2013-09-10 04:16:00,71.1,57.0,29.06,South,185,3.6,3.6,61,0.00,,,0.00,VWS V13.01,2013-09-10 09:16:00,
2013-09-10 04:17:00,70.9,56.8,29.06,South,185,3.6,3.6,61,0.00,,,0.00,VWS V13.01,2013-09-10 09:17:00,
2013-09-10 04:18:00,70.9,56.8,29.06,South,185,4.0,4.0,61,0.00,,,0.00,VWS V13.01,2013-09-10 09:18:00,
2013-09-10 04:19:00,70.9,56.8,29.06,South,185,3.1,3.1,61,0.00,,,0.00,VWS V13.01,2013-09-10 09:19:00,
2013-09-10 04:20:00,70.9,56.8,29.06,South,185,3.6,3.6,61,0.00,,,0.00,VWS V13.01,2013-09-10 09:20:00,
2013-09-10 04:21:00,70.9,56.8,29.06,South,185,3.1,3.1,61,0.00,,,0.00,VWS V13.01,2013-09-10 09:21:00,
2013-09-10 04:22:00,70.9,56.8,29.06,South,185,3.6,3.6,61,0.00,,,0.00,VWS V13.01,2013-09-10 09:22:00,
2013-09-10 04:23:00,70.7,56.6,29.06,South,185,3.1,3.1,61,0.00,,,0.00,VWS V13.01,2013-09-10 09:23:00,
2013-09-10 04:24:00,70.7,56.6,29.06,South,185,3.1,3.1,61,0.00,,,0.00,VWS V13.01,2013-09-10 09:24:00,
2013-09-10 04:25:00,70.7,63.9,29.09,South,185,3.1,3.1,79,0.00,,,0.00,VWS V13.01,2013-09-10 09:25:00,
2013-09-10 04:26:00,70.7,56.6,29.09,South,185,3.1,3.1,61,0.00,,,0.00,VWS V13.01,2013-09-10 09:26:00,
2013-09-10 04:27:00,70.9,56.8,29.09,South,185,3.6,3.6,61,0.00,,,0.00,VWS V13.01,2013-09-10 09:27:00,
2013-09-10 04:28:00,70.9,64.1,29.09,South,185,3.1,3.1,79,0.00,,,0.00,VWS V13.01,2013-09-10 09:28:00,
2013-09-10 04:29:00,70.9,64.1,29.09,South,185,3.1,3.1,79,0.00,,,0.00,VWS V13.01,2013-09-10 09:29:00,
2013-09-10 04:30:00,70.9,64.1,29.09,South,185,4.0,4.0,79,0.00,,,0.00,VWS V13.01,2013-09-10 09:30:00,
2013-09-10 04:31:00,70.9,64.1,29.09,South,185,4.0,4.0,79,0.00,,,0.00,VWS V13.01,2013-09-10 09:31:00,
2013-09-10 04:32:00,70.9,64.1,29.09,South,185,3.6,3.6,79,0.00,,,0.00,VWS V13.01,2013-09-10 09:32:00,
2013-09-10 04:33:00,70.9,64.1,29.09,South,185,3.1,3.1,79,0.00,,,0.00,VWS V13.01,2013-09-10 09:33:00,
2013-09-10 04:34:00,70.7,63.9,29.09,South,185,3.6,3.6,79,0.00,,,0.00,VWS V13.01,2013-09-10 09:34:00,
2013-09-10 04:35:00,70.7,63.9,29.09,South,185,3.1,3.1,79,0.00,,,0.00,VWS V13.01,2013-09-10 09:35:00,
2013-09-10 04:36:00,70.7,63.9,29.09,South,185,2.7,2.7,79,0.00,,,0.00,VWS V13.01,2013-09-10 09:36:00,
2013-09-10 04:37:00,70.5,63.7,29.09,South,185,4.0,4.0,79,0.00,,,0.00,VWS V13.01,2013-09-10 09:37:00,
2013-09-10 04:38:00,70.5,63.7,29.09,South,185,3.1,3.1,79,0.00,,,0.00,VWS V13.01,2013-09-10 09:38:00,
2013-09-10 04:39:00,70.5,63.7,29.09,South,185,2.7,2.7,79,0.00,,,0.00,VWS V13.01,2013-09-10 09:39:00,
2013-09-10 04:40:00,70.3,63.5,29.09,South,185,3.6,3.6,79,0.00,,,0.00,VWS V13.01,2013-09-10 09:40:00,
2013-09-10 04:41:00,70.3,63.5,29.09,South,185,4.0,4.0,79,0.00,,,0.00,VWS V13.01,2013-09-10 09:41:00,
2013-09-10 04:42:00,70.5,63.7,29.09,South,185,4.0,4.0,79,0.00,,,0.00,VWS V13.01,2013-09-10 09:42:00,
2013-09-10 04:43:00,70.5,63.7,29.09,South,185,3.6,3.6,79,0.00,,,0.00,VWS V13.01,2013-09-10 09:43:00,
2013-09-10 04:44:00,70.5,63.7,29.09,South,185,4.0,4.0,79,0.00,,,0.00,VWS V13.01,2013-09-10 09:44:00,
2013-09-10 04:45:00,70.5,63.7,29.09,South,185,4.0,4.0,79,0.00,,,0.00,VWS V13.01,2013-09-10 09:45:00,
2013-09-10 04:46:00,70.5,63.7,29.09,South,185,3.1,3.1,79,0.00,,,0.00,VWS V13.01,2013-09-10 09:46:00,
2013-09-10 04:47:00,70.7,63.9,29.09,South,185,4.0,4.0,79,0.00,,,0.00,VWS V13.01,2013-09-10 09:47:00,
2013-09-10 04:48:00,70.7,63.9,29.09,South,185,4.0,4.0,79,0.00,,,0.00,VWS V13.01,2013-09-10 09:48:00,
2013-09-10 04:49:00,70.5,63.7,29.09,South,185,4.0,4.0,79,0.00,,,0.00,VWS V13.01,2013-09-10 09:49:00,
2013-09-10 04:50:00,70.7,63.9,29.09,South,185,4.0,4.0,79,0.00,,,0.00,VWS V13.01,2013-09-10 09:50:00,
2013-09-10 04:51:00,70.7,63.9,29.09,South,185,4.0,4.0,79,0.00,,,0.00,VWS V13.01,2013-09-10 09:51:00,
2013-09-10 04:52:00,70.7,63.9,29.09,South,185,4.0,4.0,79,0.00,,,0.00,VWS V13.01,2013-09-10 09:52:00,
2013-09-10 04:53:00,70.7,63.9,29.09,South,185,4.0,4.0,79,0.00,,,0.00,VWS V13.01,2013-09-10 09:53:00,
2013-09-10 04:54:00,70.7,63.9,29.09,South,185,3.6,3.6,79,0.00,,,0.00,VWS V13.01,2013-09-10 09:54:00,
2013-09-10 04:55:00,70.7,63.9,29.09,South,185,3.6,3.6,79,0.00,,,0.00,VWS V13.01,2013-09-10 09:55:00,
2013-09-10 04:56:00,70.5,63.7,29.09,South,185,4.0,4.0,79,0.00,,,0.00,VWS V13.01,2013-09-10 09:56:00,
2013-09-10 04:57:00,70.5,63.7,29.09,South,185,4.0,4.0,79,0.00,,,0.00,VWS V13.01,2013-09-10 09:57:00,
2013-09-10 04:58:00,70.5,63.7,29.09,South,185,4.9,4.9,79,0.00,,,0.00,VWS V13.01,2013-09-10 09:58:00,
2013-09-10 04:59:00,70.3,63.5,29.09,South,185,4.0,4.0,79,0.00,,,0.00,VWS V13.01,2013-09-10 09:59:00,
2013-09-10 05:00:00,70.3,63.5,29.09,South,185,4.0,4.0,79,0.00,,,0.08,VWS V13.01,2013-09-10 10:00:00,
2013-09-10 05:01:00,70.3,63.5,29.09,South,185,4.0,4.0,79,0.00,,,0.00,VWS V13.01,2013-09-10 10:01:00,
2013-09-10 05:02:00,70.3,63.5,29.09,South,185,4.0,4.0,79,0.00,,,0.00,VWS V13.01,2013-09-10 10:02:00,
2013-09-10 05:03:00,70.2,63.3,29.09,South,185,4.5,4.5,79,0.00,,,0.00,VWS V13.01,2013-09-10 10:03:00,
2013-09-10 05:04:00,70.2,63.3,29.09,South,185,4.0,4.0,79,0.00,,,0.00,VWS V13.01,2013-09-10 10:04:00,
2013-09-10 05:05:00,70.2,63.3,29.09,South,185,3.6,3.6,79,0.00,,,0.00,VWS V13.01,2013-09-10 10:05:00,
2013-09-10 05:06:00,70.2,63.3,29.09,South,185,3.1,3.1,79,0.00,,,0.00,VWS V13.01,2013-09-10 10:06:00,
2013-09-10 05:07:00,70.2,63.3,29.09,South,185,3.6,3.6,79,0.00,,,0.00,VWS V13.01,2013-09-10 10:07:00,
2013-09-10 05:08:00,70.0,63.2,29.09,South,185,3.6,3.6,79,0.00,,,0.00,VWS V13.01,2013-09-10 10:08:00,
2013-09-10 05:09:00,70.0,63.2,29.09,South,185,3.6,3.6,79,0.00,,,0.00,VWS V13.01,2013-09-10 10:09:00,
2013-09-10 05:10:00,70.0,63.2,29.09,South,185,4.0,4.0,79,0.00,,,0.00,VWS V13.01,2013-09-10 10:10:00,
2013-09-10 05:11:00,70.2,63.3,29.09,South,185,5.4,5.4,79,0.00,,,0.00,VWS V13.01,2013-09-10 10:11:00,
2013-09-10 05:12:00,70.2,63.3,29.09,South,185,4.9,4.9,79,0.00,,,0.00,VWS V13.01,2013-09-10 10:12:00,
2013-09-10 05:13:00,70.2,63.3,29.09,South,185,4.5,4.5,79,0.00,,,0.00,VWS V13.01,2013-09-10 10:13:00,
2013-09-10 05:14:00,70.2,63.3,29.09,South,185,4.5,4.5,79,0.00,,,0.00,VWS V13.01,2013-09-10 10:14:00,
2013-09-10 05:15:00,70.2,63.3,29.09,South,185,4.0,4.0,79,0.00,,,0.00,VWS V13.01,2013-09-10 10:15:00,
2013-09-10 05:16:00,70.2,63.3,29.09,South,185,4.5,4.5,79,0.00,,,0.00,VWS V13.01,2013-09-10 10:16:00,
2013-09-10 05:17:00,70.2,63.3,29.09,South,185,4.0,4.0,79,0.00,,,0.00,VWS V13.01,2013-09-10 10:17:00,
2013-09-10 05:18:00,70.0,63.2,29.09,South,185,4.0,4.0,79,0.00,,,0.00,VWS V13.01,2013-09-10 10:18:00,
2013-09-10 05:19:00,70.0,63.2,29.09,South,185,4.9,4.9,79,0.00,,,0.00,VWS V13.01,2013-09-10 10:19:00,
2013-09-10 05:20:00,70.0,63.2,29.09,South,186,5.4,5.4,79,0.00,,,0.00,VWS V13.01,2013-09-10 10:20:00,
2013-09-10 05:21:00,70.0,63.2,29.09,South,186,4.9,4.9,79,0.00,,,0.00,VWS V13.01,2013-09-10 10:21:00,
2013-09-10 05:22:00,70.0,63.2,29.09,South,186,4.9,4.9,79,0.00,,,0.00,VWS V13.01,2013-09-10 10:22:00,
2013-09-10 05:23:00,70.0,63.2,29.09,South,186,4.9,4.9,79,0.00,,,0.00,VWS V13.01,2013-09-10 10:23:00,
2013-09-10 05:24:00,70.0,63.2,29.09,South,186,5.4,5.4,79,0.00,,,0.00,VWS V13.01,2013-09-10 10:24:00,
2013-09-10 05:25:00,70.0,67.2,29.09,South,186,5.4,5.4,91,0.00,,,0.00,VWS V13.01,2013-09-10 10:25:00,
2013-09-10 05:26:00,70.0,67.2,29.09,South,188,4.9,4.9,91,0.00,,,0.00,VWS V13.01,2013-09-10 10:26:00,
2013-09-10 05:27:00,70.0,67.2,29.09,South,188,4.9,4.9,91,0.00,,,0.00,VWS V13.01,2013-09-10 10:27:00,
2013-09-10 05:28:00,70.0,67.2,29.09,South,188,4.9,4.9,91,0.00,,,0.00,VWS V13.01,2013-09-10 10:28:00,
2013-09-10 05:29:00,70.0,67.2,29.09,South,188,5.4,5.4,91,0.00,,,0.00,VWS V13.01,2013-09-10 10:29:00,
2013-09-10 05:30:00,70.0,67.2,29.09,South,188,4.9,4.9,91,0.00,,,0.00,VWS V13.01,2013-09-10 10:30:00,
2013-09-10 05:31:00,70.0,67.2,29.09,South,188,4.9,4.9,91,0.00,,,0.00,VWS V13.01,2013-09-10 10:31:00,
2013-09-10 05:32:00,70.0,67.2,29.09,South,188,5.4,5.4,91,0.00,,,0.00,VWS V13.01,2013-09-10 10:32:00,
2013-09-10 05:33:00,70.0,67.2,29.09,South,188,5.4,5.4,91,0.00,,,0.00,VWS V13.01,2013-09-10 10:33:00,
2013-09-10 05:34:00,70.0,63.2,29.09,South,189,5.8,5.8,79,0.00,,,0.00,VWS V13.01,2013-09-10 10:34:00,
2013-09-10 05:35:00,70.0,63.2,29.09,South,189,4.5,4.5,79,0.00,,,0.00,VWS V13.01,2013-09-10 10:35:00,
2013-09-10 05:36:00,70.0,63.2,29.09,South,189,4.5,4.5,79,0.00,,,0.00,VWS V13.01,2013-09-10 10:36:00,
2013-09-10 05:37:00,70.0,63.2,29.09,South,189,4.9,4.9,79,0.00,,,0.00,VWS V13.01,2013-09-10 10:37:00,
2013-09-10 05:38:00,69.8,67.1,29.09,South,189,4.5,4.5,91,0.00,,,0.00,VWS V13.01,2013-09-10 10:38:00,
2013-09-10 05:39:00,69.8,67.1,29.09,South,189,4.5,4.5,91,0.00,,,0.00,VWS V13.01,2013-09-10 10:39:00,
2013-09-10 05:40:00,69.8,67.1,29.09,South,189,4.9,4.9,91,0.00,,,0.00,VWS V13.01,2013-09-10 10:40:00,
2013-09-10 05:41:00,69.8,67.1,29.09,South,189,5.8,5.8,91,0.00,,,0.00,VWS V13.01,2013-09-10 10:41:00,
2013-09-10 05:42:00,69.8,67.1,29.09,South,189,4.9,4.9,91,0.00,,,0.00,VWS V13.01,2013-09-10 10:42:00,
2013-09-10 05:43:00,69.8,67.1,29.09,South,189,4.9,4.9,91,0.00,,,0.00,VWS V13.01,2013-09-10 10:43:00,
2013-09-10 05:44:00,69.8,67.1,29.09,South,188,4.0,4.0,91,0.00,,,0.00,VWS V13.01,2013-09-10 10:44:00,
2013-09-10 05:45:00,69.8,67.1,29.09,South,188,4.0,4.0,91,0.00,,,0.00,VWS V13.01,2013-09-10 10:45:00,
2013-09-10 05:46:00,69.8,67.1,29.09,South,188,4.0,4.0,91,0.00,,,0.00,VWS V13.01,2013-09-10 10:46:00,
2013-09-10 05:47:00,69.8,67.1,29.09,South,188,4.0,4.0,91,0.00,,,0.00,VWS V13.01,2013-09-10 10:47:00,
2013-09-10 05:48:00,69.6,68.7,29.09,South,188,4.0,4.0,97,0.00,,,0.00,VWS V13.01,2013-09-10 10:48:00,
2013-09-10 05:49:00,69.6,68.7,29.09,South,188,4.0,4.0,97,0.00,,,0.00,VWS V13.01,2013-09-10 10:49:00,
2013-09-10 05:50:00,69.6,68.7,29.09,South,188,4.0,4.0,97,0.00,,,0.00,VWS V13.01,2013-09-10 10:50:00,
2013-09-10 05:51:00,69.6,68.7,29.09,South,188,4.9,4.9,97,0.00,,,0.00,VWS V13.01,2013-09-10 10:51:00,
2013-09-10 05:52:00,69.6,68.7,29.09,South,188,4.0,4.0,97,0.00,,,0.00,VWS V13.01,2013-09-10 10:52:00,
2013-09-10 05:53:00,69.6,68.7,29.09,South,188,4.0,4.0,97,0.00,,,0.00,VWS V13.01,2013-09-10 10:53:00,
2013-09-10 05:54:00,69.6,68.7,29.09,South,188,3.1,3.1,97,0.00,,,0.00,VWS V13.01,2013-09-10 10:54:00,
2013-09-10 05:55:00,69.6,68.7,29.09,South,188,4.9,4.9,97,0.00,,,0.00,VWS V13.01,2013-09-10 10:55:00,
2013-09-10 05:56:00,69.6,68.7,29.09,South,188,4.0,4.0,97,0.00,,,0.00,VWS V13.01,2013-09-10 10:56:00,
2013-09-10 05:57:00,69.6,68.7,29.09,South,188,4.0,4.0,97,0.00,,,0.00,VWS V13.01,2013-09-10 10:57:00,
2013-09-10 05:58:00,69.6,68.7,29.09,South,188,4.0,4.0,97,0.00,,,0.00,VWS V13.01,2013-09-10 10:58:00,
2013-09-10 05:59:00,69.6,68.7,29.09,South,188,4.0,4.0,97,0.00,,,0.00,VWS V13.01,2013-09-10 10:59:00,
2013-09-10 06:00:00,69.4,68.6,29.09,South,188,4.0,4.0,97,0.00,,,0.00,VWS V13.01,2013-09-10 11:00:00,
2013-09-10 06:01:00,69.6,68.7,29.09,South,188,4.0,4.0,97,0.00,,,0.00,VWS V13.01,2013-09-10 11:01:00,
2013-09-10 06:02:00,69.6,68.7,29.09,South,188,4.0,4.0,97,0.00,,,0.00,VWS V13.01,2013-09-10 11:02:00,
2013-09-10 06:03:00,69.4,68.6,29.09,South,188,4.5,4.5,97,0.00,,,0.00,VWS V13.01,2013-09-10 11:03:00,
2013-09-10 06:04:00,69.4,68.6,29.09,South,188,4.9,4.9,97,0.00,,,0.00,VWS V13.01,2013-09-10 11:04:00,
2013-09-10 06:05:00,69.4,68.6,29.09,South,188,4.0,4.0,97,0.00,,,0.00,VWS V13.01,2013-09-10 11:05:00,
2013-09-10 06:06:00,69.4,68.6,29.09,South,188,4.0,4.0,97,0.00,,,0.00,VWS V13.01,2013-09-10 11:06:00,
2013-09-10 06:07:00,69.4,68.6,29.09,South,188,4.0,4.0,97,0.00,,,0.00,VWS V13.01,2013-09-10 11:07:00,
2013-09-10 06:08:00,69.4,68.6,29.09,South,188,3.6,3.6,97,0.00,,,0.00,VWS V13.01,2013-09-10 11:08:00,
2013-09-10 06:09:00,69.4,68.6,29.09,South,188,4.0,4.0,97,0.00,,,0.00,VWS V13.01,2013-09-10 11:09:00,
2013-09-10 06:10:00,69.4,68.6,29.09,South,188,4.0,4.0,97,0.00,,,0.00,VWS V13.01,2013-09-10 11:10:00,
2013-09-10 06:11:00,69.4,68.6,29.09,South,188,3.6,3.6,97,0.00,,,0.00,VWS V13.01,2013-09-10 11:11:00,
2013-09-10 06:12:00,69.4,68.6,29.09,South,188,4.0,4.0,97,0.00,,,0.00,VWS V13.01,2013-09-10 11:12:00,
2013-09-10 06:13:00,69.3,68.4,29.09,South,188,3.6,3.6,97,0.00,,,0.00,VWS V13.01,2013-09-10 11:13:00,
2013-09-10 06:14:00,69.3,68.4,29.09,South,188,4.0,4.0,97,0.00,,,0.00,VWS V13.01,2013-09-10 11:14:00,
2013-09-10 06:15:00,69.3,68.4,29.09,South,188,4.9,4.9,97,0.00,,,0.00,VWS V13.01,2013-09-10 11:15:00,
2013-09-10 06:16:00,69.3,68.4,29.09,South,188,4.0,4.0,97,0.00,,,0.00,VWS V13.01,2013-09-10 11:16:00,
2013-09-10 06:17:00,69.3,68.4,29.09,South,188,4.0,4.0,97,0.00,,,0.00,VWS V13.01,2013-09-10 11:17:00,
2013-09-10 06:18:00,69.3,68.4,29.09,South,188,3.6,3.6,97,0.00,,,0.00,VWS V13.01,2013-09-10 11:18:00,
2013-09-10 06:19:00,69.3,68.4,29.09,South,188,4.0,4.0,97,0.00,,,0.00,VWS V13.01,2013-09-10 11:19:00,
2013-09-10 06:20:00,69.3,68.4,29.09,South,188,4.9,4.9,97,0.00,,,0.00,VWS V13.01,2013-09-10 11:20:00,
2013-09-10 06:21:00,69.4,68.6,29.09,South,188,4.9,4.9,97,0.00,,,0.00,VWS V13.01,2013-09-10 11:21:00,
2013-09-10 06:22:00,69.4,68.6,29.09,South,188,4.0,4.0,97,0.00,,,0.00,VWS V13.01,2013-09-10 11:22:00,
2013-09-10 06:23:00,69.4,68.6,29.09,South,188,4.5,4.5,97,0.00,,,0.00,VWS V13.01,2013-09-10 11:23:00,
2013-09-10 06:24:00,69.4,68.6,29.09,South,188,4.5,4.5,97,0.00,,,0.00,VWS V13.01,2013-09-10 11:24:00,
2013-09-10 06:25:00,69.3,68.4,29.09,South,188,4.9,4.9,97,0.00,,,0.00,VWS V13.01,2013-09-10 11:25:00,
2013-09-10 06:26:00,69.3,68.4,29.09,South,188,4.9,4.9,97,0.00,,,0.00,VWS V13.01,2013-09-10 11:26:00,
2013-09-10 06:27:00,69.3,68.4,29.09,South,188,6.3,6.3,97,0.00,,,0.00,VWS V13.01,2013-09-10 11:27:00,
2013-09-10 06:28:00,69.3,68.4,29.09,South,188,5.8,5.8,97,0.00,,,0.00,VWS V13.01,2013-09-10 11:28:00,
2013-09-10 06:29:00,69.3,68.4,29.09,South,188,4.9,4.9,97,0.00,,,0.00,VWS V13.01,2013-09-10 11:29:00,
2013-09-10 06:30:00,69.3,68.4,29.09,South,188,4.0,4.0,97,0.00,,,0.00,VWS V13.01,2013-09-10 11:30:00,
2013-09-10 06:31:00,69.3,68.4,29.09,South,188,5.4,5.4,97,0.00,,,0.00,VWS V13.01,2013-09-10 11:31:00,
2013-09-10 06:32:00,69.3,68.4,29.09,South,188,5.8,5.8,97,0.00,,,0.00,VWS V13.01,2013-09-10 11:32:00,
2013-09-10 06:33:00,69.3,68.4,29.09,South,188,4.9,4.9,97,0.00,,,0.00,VWS V13.01,2013-09-10 11:33:00,
2013-09-10 06:34:00,69.3,68.4,29.09,South,188,5.4,5.4,97,0.00,,,0.00,VWS V13.01,2013-09-10 11:34:00,
2013-09-10 06:35:00,69.1,68.2,29.09,South,188,5.4,5.4,97,0.00,,,0.00,VWS V13.01,2013-09-10 11:35:00,
2013-09-10 06:36:00,69.1,68.2,29.09,South,188,4.0,4.0,97,0.00,,,0.00,VWS V13.01,2013-09-10 11:36:00,
2013-09-10 06:37:00,69.1,68.2,29.09,South,188,3.6,3.6,97,0.00,,,0.00,VWS V13.01,2013-09-10 11:37:00,
2013-09-10 06:38:00,69.1,68.2,29.09,South,188,4.9,4.9,97,0.00,,,0.00,VWS V13.01,2013-09-10 11:38:00,
2013-09-10 06:39:00,69.1,68.2,29.09,South,188,4.0,4.0,97,0.00,,,0.00,VWS V13.01,2013-09-10 11:39:00,
2013-09-10 06:40:00,69.1,68.2,29.09,South,188,4.0,4.0,97,0.00,,,0.00,VWS V13.01,2013-09-10 11:40:00,
2013-09-10 06:41:00,69.1,68.2,29.09,South,188,4.0,4.0,97,0.00,,,0.00,VWS V13.01,2013-09-10 11:41:00,
2013-09-10 06:42:00,68.9,68.0,29.09,South,188,3.6,3.6,97,0.00,,,0.00,VWS V13.01,2013-09-10 11:42:00,
2013-09-10 06:43:00,68.9,68.0,29.09,South,188,3.6,3.6,97,0.00,,,0.00,VWS V13.01,2013-09-10 11:43:00,
2013-09-10 06:44:00,68.9,68.0,29.09,South,188,4.9,4.9,97,0.00,,,0.00,VWS V13.01,2013-09-10 11:44:00,
2013-09-10 06:45:00,69.1,68.2,29.09,South,188,4.0,4.0,97,0.00,,,0.00,VWS V13.01,2013-09-10 11:45:00,
2013-09-10 06:46:00,69.1,68.2,29.09,South,188,4.0,4.0,97,0.00,,,0.00,VWS V13.01,2013-09-10 11:46:00,
2013-09-10 06:47:00,68.9,68.0,29.09,South,188,4.0,4.0,97,0.00,,,0.00,VWS V13.01,2013-09-10 11:47:00,
2013-09-10 06:48:00,68.9,68.0,29.09,South,188,4.0,4.0,97,0.00,,,0.00,VWS V13.01,2013-09-10 11:48:00,
2013-09-10 06:49:00,68.9,68.0,29.09,South,188,3.6,3.6,97,0.00,,,0.00,VWS V13.01,2013-09-10 11:49:00,
2013-09-10 06:50:00,68.9,68.0,29.09,South,188,4.0,4.0,97,0.00,,,0.00,VWS V13.01,2013-09-10 11:50:00,
2013-09-10 06:51:00,68.9,68.0,29.09,South,188,4.0,4.0,97,0.00,,,0.00,VWS V13.01,2013-09-10 11:51:00,
2013-09-10 06:52:00,68.9,68.0,29.09,South,188,4.0,4.0,97,0.00,,,0.00,VWS V13.01,2013-09-10 11:52:00,
2013-09-10 06:53:00,68.9,68.0,29.09,South,188,4.5,4.5,97,0.00,,,0.00,VWS V13.01,2013-09-10 11:53:00,
2013-09-10 06:54:00,68.9,68.0,29.09,South,188,4.0,4.0,97,0.00,,,0.00,VWS V13.01,2013-09-10 11:54:00,
2013-09-10 06:55:00,68.9,68.0,29.09,South,188,3.6,3.6,97,0.00,,,0.00,VWS V13.01,2013-09-10 11:55:00,
2013-09-10 06:56:00,68.9,68.0,29.09,South,188,3.6,3.6,97,0.00,,,0.00,VWS V13.01,2013-09-10 11:56:00,
2013-09-10 06:57:00,68.9,68.0,29.09,South,188,5.4,5.4,97,0.00,,,0.00,VWS V13.01,2013-09-10 11:57:00,
2013-09-10 06:58:00,68.9,68.0,29.09,South,188,5.4,5.4,97,0.00,,,0.00,VWS V13.01,2013-09-10 11:58:00,
2013-09-10 06:59:00,68.9,68.0,29.09,South,188,4.9,4.9,97,0.00,,,0.00,VWS V13.01,2013-09-10 11:59:00,
2013-09-10 07:00:00,68.9,68.0,29.09,South,188,4.5,4.5,97,0.00,,,0.00,VWS V13.01,2013-09-10 12:00:00,
2013-09-10 07:01:00,68.9,68.0,29.09,South,188,4.0,4.0,97,0.00,,,0.00,VWS V13.01,2013-09-10 12:01:00,
2013-09-10 07:02:00,69.1,68.2,29.09,South,188,3.6,3.6,97,0.00,,,0.00,VWS V13.01,2013-09-10 12:02:00,
2013-09-10 07:03:00,69.1,68.2,29.09,South,188,4.9,4.9,97,0.00,,,0.00,VWS V13.01,2013-09-10 12:03:00,
2013-09-10 07:04:00,69.1,68.2,29.09,South,188,4.9,4.9,97,0.00,,,0.00,VWS V13.01,2013-09-10 12:04:00,
2013-09-10 07:05:00,69.1,68.2,29.09,South,188,4.9,4.9,97,0.00,,,0.00,VWS V13.01,2013-09-10 12:05:00,
2013-09-10 07:06:00,69.1,68.2,29.09,South,188,5.4,5.4,97,0.00,,,0.00,VWS V13.01,2013-09-10 12:06:00,
2013-09-10 07:07:00,69.1,68.2,29.09,South,188,5.8,5.8,97,0.00,,,0.00,VWS V13.01,2013-09-10 12:07:00,
2013-09-10 07:08:00,69.1,68.2,29.09,South,188,4.0,4.0,97,0.00,,,0.00,VWS V13.01,2013-09-10 12:08:00,
2013-09-10 07:09:00,69.3,68.4,29.12,South,188,4.0,4.0,97,0.00,,,0.00,VWS V13.01,2013-09-10 12:09:00,
2013-09-10 07:10:00,69.3,68.4,29.12,South,188,4.0,4.0,97,0.00,,,0.00,VWS V13.01,2013-09-10 12:10:00,
2013-09-10 07:11:00,69.3,68.4,29.12,South,188,4.0,4.0,97,0.00,,,0.00,VWS V13.01,2013-09-10 12:11:00,
2013-09-10 07:12:00,69.3,68.4,29.12,South,188,4.5,4.5,97,0.00,,,0.00,VWS V13.01,2013-09-10 12:12:00,
2013-09-10 07:13:00,69.3,68.4,29.12,South,188,4.0,4.0,97,0.00,,,0.00,VWS V13.01,2013-09-10 12:13:00,
2013-09-10 07:14:00,69.3,68.4,29.12,South,188,4.0,4.0,97,0.00,,,0.00,VWS V13.01,2013-09-10 12:14:00,
2013-09-10 07:15:00,69.4,62.7,29.12,South,188,5.8,5.8,79,0.00,,,0.00,VWS V13.01,2013-09-10 12:15:00,
2013-09-10 07:16:00,69.6,62.8,29.12,South,188,5.4,5.4,79,0.00,,,0.00,VWS V13.01,2013-09-10 12:16:00,
2013-09-10 07:17:00,70.0,63.2,29.12,South,188,5.4,5.4,79,0.00,,,0.00,VWS V13.01,2013-09-10 12:17:00,
2013-09-10 07:18:00,70.2,63.3,29.12,South,188,4.9,4.9,79,0.00,,,0.00,VWS V13.01,2013-09-10 12:18:00,
2013-09-10 07:19:00,70.3,63.5,29.12,South,188,3.6,3.6,79,0.00,,,0.00,VWS V13.01,2013-09-10 12:19:00,
2013-09-10 07:20:00,70.5,63.7,29.12,South,188,4.0,4.0,79,0.00,,,0.00,VWS V13.01,2013-09-10 12:20:00,
2013-09-10 07:21:00,70.7,63.9,29.12,South,188,5.4,5.4,79,0.00,,,0.00,VWS V13.01,2013-09-10 12:21:00,
2013-09-10 07:22:00,70.7,63.9,29.12,South,188,4.9,4.9,79,0.00,,,0.00,VWS V13.01,2013-09-10 12:22:00,
2013-09-10 07:23:00,70.9,64.1,29.12,South,188,4.0,4.0,79,0.00,,,0.00,VWS V13.01,2013-09-10 12:23:00,
2013-09-10 07:24:00,70.9,64.1,29.12,South,188,4.9,4.9,79,0.00,,,0.00,VWS V13.01,2013-09-10 12:24:00,
2013-09-10 07:25:00,71.1,64.2,29.12,South,188,4.0,4.0,79,0.00,,,0.00,VWS V13.01,2013-09-10 12:25:00,
2013-09-10 07:26:00,71.2,64.4,29.12,South,188,4.5,4.5,79,0.00,,,0.00,VWS V13.01,2013-09-10 12:26:00,
2013-09-10 07:27:00,71.2,64.4,29.12,South,188,4.9,4.9,79,0.00,,,0.00,VWS V13.01,2013-09-10 12:27:00,
2013-09-10 07:28:00,71.6,62.5,29.12,South,188,4.0,4.0,73,0.00,,,0.00,VWS V13.01,2013-09-10 12:28:00,
2013-09-10 07:29:00,71.6,62.5,29.12,South,188,4.0,4.0,73,0.00,,,0.00,VWS V13.01,2013-09-10 12:29:00,
2013-09-10 07:30:00,71.8,62.7,29.12,South,188,4.9,4.9,73,0.00,,,0.00,VWS V13.01,2013-09-10 12:30:00,
2013-09-10 07:31:00,72.0,62.8,29.12,South,188,4.0,4.0,73,0.00,,,0.00,VWS V13.01,2013-09-10 12:31:00,
2013-09-10 07:32:00,72.0,62.8,29.12,South,188,4.5,4.5,73,0.00,,,0.00,VWS V13.01,2013-09-10 12:32:00,
2013-09-10 07:33:00,72.3,58.1,29.12,South,188,4.0,4.0,61,0.00,,,0.00,VWS V13.01,2013-09-10 12:33:00,
2013-09-10 07:34:00,72.3,58.1,29.12,South,188,4.0,4.0,61,0.00,,,0.00,VWS V13.01,2013-09-10 12:34:00,
2013-09-10 07:35:00,72.3,58.1,29.12,South,188,5.4,5.4,61,0.00,,,0.00,VWS V13.01,2013-09-10 12:35:00,
2013-09-10 07:36:00,72.5,58.3,29.12,South,188,4.9,4.9,61,0.00,,,0.00,VWS V13.01,2013-09-10 12:36:00,
2013-09-10 07:37:00,72.5,58.3,29.12,South,188,5.4,5.4,61,0.00,,,0.00,VWS V13.01,2013-09-10 12:37:00,
2013-09-10 07:38:00,72.5,58.3,29.12,South,186,4.9,4.9,61,0.00,,,0.00,VWS V13.01,2013-09-10 12:38:00,
2013-09-10 07:39:00,72.5,58.3,29.12,South,186,4.5,4.5,61,0.00,,,0.00,VWS V13.01,2013-09-10 12:39:00,
2013-09-10 07:40:00,72.5,58.3,29.12,South,181,5.8,5.8,61,0.00,,,0.00,VWS V13.01,2013-09-10 12:40:00,
2013-09-10 07:41:00,72.5,58.3,29.12,South,185,5.4,5.4,61,0.00,,,0.00,VWS V13.01,2013-09-10 12:41:00,
2013-09-10 07:42:00,72.5,58.3,29.12,South,191,5.8,5.8,61,0.00,,,0.00,VWS V13.01,2013-09-10 12:42:00,
2013-09-10 07:43:00,72.7,58.5,29.12,South,191,6.3,6.3,61,0.00,,,0.00,VWS V13.01,2013-09-10 12:43:00,
2013-09-10 07:44:00,72.7,58.5,29.12,South,191,5.8,5.8,61,0.00,,,0.00,VWS V13.01,2013-09-10 12:44:00,
2013-09-10 07:45:00,72.7,58.5,29.12,South,191,5.4,5.4,61,0.00,,,0.00,VWS V13.01,2013-09-10 12:45:00,
2013-09-10 07:46:00,72.7,58.5,29.12,South,191,5.4,5.4,61,0.00,,,0.00,VWS V13.01,2013-09-10 12:46:00,
2013-09-10 07:47:00,73.0,58.8,29.12,South,185,5.8,5.8,61,0.00,,,0.00,VWS V13.01,2013-09-10 12:47:00,
2013-09-10 07:48:00,73.0,58.8,29.12,SSW,193,5.8,5.8,61,0.00,,,0.00,VWS V13.01,2013-09-10 12:48:00,
2013-09-10 07:49:00,73.0,58.8,29.12,SSW,193,6.3,6.3,61,0.00,,,0.00,VWS V13.01,2013-09-10 12:49:00,
2013-09-10 07:50:00,73.2,59.0,29.12,South,180,5.8,5.8,61,0.00,,,0.00,VWS V13.01,2013-09-10 12:50:00,
2013-09-10 07:51:00,73.4,56.3,29.12,SSW,196,5.4,5.4,55,0.00,,,0.00,VWS V13.01,2013-09-10 12:51:00,
2013-09-10 07:52:00,73.8,56.6,29.12,SSW,195,5.4,5.4,55,0.00,,,0.00,VWS V13.01,2013-09-10 12:52:00,
2013-09-10 07:53:00,73.9,56.8,29.12,SSW,195,6.3,6.3,55,0.00,,,0.00,VWS V13.01,2013-09-10 12:53:00,
2013-09-10 07:54:00,73.9,56.8,29.12,SSW,192,5.8,5.8,55,0.00,,,0.00,VWS V13.01,2013-09-10 12:54:00,
2013-09-10 07:55:00,73.9,56.8,29.12,South,191,4.9,4.9,55,0.00,,,0.00,VWS V13.01,2013-09-10 12:55:00,
2013-09-10 07:56:00,73.9,56.8,29.12,South,189,5.8,5.8,55,0.00,,,0.00,VWS V13.01,2013-09-10 12:56:00,
2013-09-10 07:57:00,74.1,56.9,29.12,South,190,5.4,5.4,55,0.00,,,0.00,VWS V13.01,2013-09-10 12:57:00,
2013-09-10 07:58:00,74.1,56.9,29.12,South,189,6.3,6.3,55,0.00,,,0.00,VWS V13.01,2013-09-10 12:58:00,
2013-09-10 07:59:00,74.3,57.1,29.12,South,189,5.8,5.8,55,0.00,,,0.00,VWS V13.01,2013-09-10 12:59:00,
2013-09-10 08:00:00,74.5,57.3,29.12,South,180,5.8,5.8,55,0.00,,,0.00,VWS V13.01,2013-09-10 13:00:00,
2013-09-10 08:01:00,74.7,57.4,29.12,South,172,6.3,6.3,55,0.00,,,0.00,VWS V13.01,2013-09-10 13:01:00,
2013-09-10 08:02:00,75.0,57.8,29.12,South,183,4.0,4.0,55,0.00,,,0.00,VWS V13.01,2013-09-10 13:02:00,
2013-09-10 08:03:00,75.0,57.8,29.12,South,180,4.0,4.0,55,0.00,,,0.00,VWS V13.01,2013-09-10 13:03:00,
2013-09-10 08:04:00,75.2,57.9,29.12,South,176,5.8,5.8,55,0.00,,,0.00,VWS V13.01,2013-09-10 13:04:00,
2013-09-10 08:05:00,75.2,57.9,29.12,South,181,6.3,6.3,55,0.00,,,0.00,VWS V13.01,2013-09-10 13:05:00,
2013-09-10 08:06:00,75.4,58.1,29.12,South,181,4.0,4.0,55,0.00,,,0.00,VWS V13.01,2013-09-10 13:06:00,
2013-09-10 08:07:00,75.7,58.4,29.12,South,182,5.4,5.4,55,0.00,,,0.00,VWS V13.01,2013-09-10 13:07:00,
2013-09-10 08:08:00,75.7,58.4,29.12,SSW,200,5.4,5.4,55,0.00,,,0.00,VWS V13.01,2013-09-10 13:08:00,
2013-09-10 08:09:00,76.1,58.8,29.12,South,183,5.4,5.4,55,0.00,,,0.00,VWS V13.01,2013-09-10 13:09:00,
2013-09-10 08:10:00,76.1,58.8,29.12,South,187,5.4,5.4,55,0.00,,,0.00,VWS V13.01,2013-09-10 13:10:00,
2013-09-10 08:11:00,76.1,58.8,29.12,South,187,5.4,5.4,55,0.00,,,0.00,VWS V13.01,2013-09-10 13:11:00,
2013-09-10 08:12:00,76.3,58.9,29.12,SSW,192,6.3,6.3,55,0.00,,,0.00,VWS V13.01,2013-09-10 13:12:00,
2013-09-10 08:13:00,76.1,58.8,29.12,SSW,193,6.3,6.3,55,0.00,,,0.00,VWS V13.01,2013-09-10 13:13:00,
2013-09-10 08:14:00,76.5,59.1,29.12,South,191,5.8,5.8,55,0.00,,,0.00,VWS V13.01,2013-09-10 13:14:00,
2013-09-10 08:15:00,76.3,58.9,29.12,South,190,8.7,8.7,55,0.00,,,0.00,VWS V13.01,2013-09-10 13:15:00,
2013-09-10 08:16:00,76.3,58.9,29.12,South,189,6.7,6.7,55,0.00,,,0.00,VWS V13.01,2013-09-10 13:16:00,
2013-09-10 08:17:00,76.8,59.5,29.12,SSW,194,6.7,6.7,55,0.00,,,0.00,VWS V13.01,2013-09-10 13:17:00,
2013-09-10 08:18:00,76.6,59.3,29.12,SSW,194,6.3,6.3,55,0.00,,,0.00,VWS V13.01,2013-09-10 13:18:00,
2013-09-10 08:19:00,76.5,59.1,29.12,South,184,8.7,8.7,55,0.00,,,0.00,VWS V13.01,2013-09-10 13:19:00,
2013-09-10 08:20:00,76.8,59.5,29.12,South,182,5.8,5.8,55,0.00,,,0.00,VWS V13.01,2013-09-10 13:20:00,
2013-09-10 08:21:00,77.0,59.6,29.12,South,179,7.6,7.6,55,0.00,,,0.00,VWS V13.01,2013-09-10 13:21:00,
2013-09-10 08:22:00,77.2,59.8,29.12,South,190,7.2,7.2,55,0.00,,,0.00,VWS V13.01,2013-09-10 13:22:00,
2013-09-10 08:23:00,76.8,59.5,29.12,South,190,6.7,6.7,55,0.00,,,0.00,VWS V13.01,2013-09-10 13:23:00,
2013-09-10 08:24:00,76.8,59.5,29.12,SSW,196,8.3,8.3,55,0.00,,,0.00,VWS V13.01,2013-09-10 13:24:00,
2013-09-10 08:25:00,77.0,59.6,29.12,SSW,195,7.6,7.6,55,0.00,,,0.00,VWS V13.01,2013-09-10 13:25:00,
2013-09-10 08:26:00,77.2,59.8,29.12,SSW,192,5.8,5.8,55,0.00,,,0.00,VWS V13.01,2013-09-10 13:26:00,
2013-09-10 08:27:00,77.4,60.0,29.12,South,188,7.2,7.2,55,0.00,,,0.00,VWS V13.01,2013-09-10 13:27:00,
2013-09-10 08:28:00,77.4,60.0,29.12,SSW,192,6.3,6.3,55,0.00,,,0.00,VWS V13.01,2013-09-10 13:28:00,
2013-09-10 08:29:00,77.9,60.5,29.12,South,183,5.4,5.4,55,0.00,,,0.00,VWS V13.01,2013-09-10 13:29:00,
2013-09-10 08:30:00,78.3,60.8,29.12,South,179,8.7,8.7,55,0.00,,,0.00,VWS V13.01,2013-09-10 13:30:00,
2013-09-10 08:31:00,78.1,60.6,29.12,South,179,6.3,6.3,55,0.00,,,0.00,VWS V13.01,2013-09-10 13:31:00,
2013-09-10 08:32:00,78.6,61.1,29.12,SSW,193,5.4,5.4,55,0.00,,,0.00,VWS V13.01,2013-09-10 13:32:00,
2013-09-10 08:33:00,79.0,58.2,29.12,SSW,192,7.6,7.6,49,0.00,,,0.00,VWS V13.01,2013-09-10 13:33:00,
2013-09-10 08:34:00,78.3,60.8,29.12,South,187,6.3,6.3,55,0.00,,,0.00,VWS V13.01,2013-09-10 13:34:00,
2013-09-10 08:35:00,79.0,58.2,29.12,South,187,6.3,6.3,49,0.00,,,0.00,VWS V13.01,2013-09-10 13:35:00,
2013-09-10 08:36:00,79.0,58.2,29.12,South,187,6.3,6.3,49,0.00,,,0.00,VWS V13.01,2013-09-10 13:36:00,
2013-09-10 08:37:00,79.0,58.2,29.12,South,189,8.1,8.1,49,0.00,,,0.00,VWS V13.01,2013-09-10 13:37:00,
2013-09-10 08:38:00,78.8,58.0,29.12,South,180,7.6,7.6,49,0.00,,,0.00,VWS V13.01,2013-09-10 13:38:00,
2013-09-10 08:39:00,79.3,58.5,29.12,South,184,6.3,6.3,49,0.00,,,0.00,VWS V13.01,2013-09-10 13:39:00,
2013-09-10 08:40:00,79.3,58.5,29.15,South,185,8.3,8.3,49,0.00,,,0.00,VWS V13.01,2013-09-10 13:40:00,
2013-09-10 08:41:00,79.5,58.7,29.15,South,185,6.3,6.3,49,0.00,,,0.00,VWS V13.01,2013-09-10 13:41:00,
2013-09-10 08:42:00,79.7,58.9,29.15,South,180,7.6,7.6,49,0.00,,,0.00,VWS V13.01,2013-09-10 13:42:00,
2013-09-10 08:43:00,79.5,58.7,29.15,South,191,8.3,8.3,49,0.00,,,0.00,VWS V13.01,2013-09-10 13:43:00,
2013-09-10 08:44:00,79.9,59.0,29.15,South,185,6.7,6.7,49,0.00,,,0.00,VWS V13.01,2013-09-10 13:44:00,
2013-09-10 08:45:00,79.9,59.0,29.15,South,178,9.2,9.2,49,0.00,,,0.00,VWS V13.01,2013-09-10 13:45:00,
2013-09-10 08:46:00,80.1,59.2,29.15,South,186,7.6,7.6,49,0.00,,,0.00,VWS V13.01,2013-09-10 13:46:00,
2013-09-10 08:47:00,80.2,59.4,29.15,South,184,8.1,8.1,49,0.00,,,0.00,VWS V13.01,2013-09-10 13:47:00,
2013-09-10 08:48:00,80.4,59.5,29.15,South,185,8.1,8.1,49,0.00,,,0.00,VWS V13.01,2013-09-10 13:48:00,
2013-09-10 08:49:00,80.8,59.9,29.15,South,188,6.7,6.7,49,0.00,,,0.00,VWS V13.01,2013-09-10 13:49:00,
2013-09-10 08:50:00,80.4,59.5,29.15,South,186,10.1,10.1,49,0.00,,,0.00,VWS V13.01,2013-09-10 13:50:00,
2013-09-10 08:51:00,81.0,60.0,29.15,South,175,7.6,7.6,49,0.00,,,0.00,VWS V13.01,2013-09-10 13:51:00,
2013-09-10 08:52:00,81.1,60.2,29.15,South,190,8.1,8.1,49,0.00,,,0.00,VWS V13.01,2013-09-10 13:52:00,
2013-09-10 08:53:00,81.1,60.2,29.15,South,187,8.1,8.1,49,0.00,,,0.00,VWS V13.01,2013-09-10 13:53:00,
2013-09-10 08:54:00,81.1,60.2,29.15,South,184,8.1,8.1,49,0.00,,,0.00,VWS V13.01,2013-09-10 13:54:00,
2013-09-10 08:55:00,81.1,60.2,29.12,South,186,8.3,8.3,49,0.00,,,0.00,VWS V13.01,2013-09-10 13:55:00,
2013-09-10 08:56:00,80.4,59.5,29.12,South,189,8.7,8.7,49,0.00,,,0.00,VWS V13.01,2013-09-10 13:56:00,
2013-09-10 08:57:00,80.6,59.7,29.12,South,187,7.6,7.6,49,0.00,,,0.00,VWS V13.01,2013-09-10 13:57:00,
2013-09-10 08:58:00,81.1,60.2,29.12,South,185,7.2,7.2,49,0.00,,,0.00,VWS V13.01,2013-09-10 13:58:00,
2013-09-10 08:59:00,81.3,60.3,29.12,South,183,7.6,7.6,49,0.00,,,0.00,VWS V13.01,2013-09-10 13:59:00,
2013-09-10 09:00:00,80.8,59.9,29.12,South,191,6.3,6.3,49,0.00,,,0.00,VWS V13.01,2013-09-10 14:00:00,
2013-09-10 09:01:00,81.3,60.3,29.12,South,189,8.1,8.1,49,0.00,,,0.00,VWS V13.01,2013-09-10 14:01:00,
2013-09-10 09:02:00,81.7,60.7,29.12,South,191,7.6,7.6,49,0.00,,,0.00,VWS V13.01,2013-09-10 14:02:00,
2013-09-10 09:03:00,82.6,57.8,29.12,South,177,7.6,7.6,43,0.00,,,0.00,VWS V13.01,2013-09-10 14:03:00,
2013-09-10 09:04:00,82.2,61.2,29.12,South,172,8.7,8.7,49,0.00,,,0.00,VWS V13.01,2013-09-10 14:04:00,
2013-09-10 09:05:00,81.7,60.7,29.12,South,176,8.7,8.7,49,0.00,,,0.00,VWS V13.01,2013-09-10 14:05:00,
2013-09-10 09:06:00,82.0,61.0,29.12,SSW,196,8.7,8.7,49,0.00,,,0.00,VWS V13.01,2013-09-10 14:06:00,
2013-09-10 09:07:00,81.9,60.8,29.12,South,181,10.5,10.5,49,0.00,,,0.00,VWS V13.01,2013-09-10 14:07:00,
2013-09-10 09:08:00,81.9,60.8,29.12,South,179,8.1,8.1,49,0.00,,,0.00,VWS V13.01,2013-09-10 14:08:00,
2013-09-10 09:09:00,81.9,60.8,29.12,SSW,198,8.1,8.1,49,0.00,,,0.00,VWS V13.01,2013-09-10 14:09:00,
2013-09-10 09:10:00,82.0,61.0,29.15,South,187,8.1,8.1,49,0.00,,,0.00,VWS V13.01,2013-09-10 14:10:00,
2013-09-10 09:11:00,82.8,58.0,29.15,South,184,7.6,7.6,43,0.00,,,0.00,VWS V13.01,2013-09-10 14:11:00,
2013-09-10 09:12:00,82.2,61.2,29.15,South,184,9.2,9.2,49,0.00,,,0.00,VWS V13.01,2013-09-10 14:12:00,
2013-09-10 09:13:00,82.6,57.8,29.15,SSW,192,8.3,8.3,43,0.00,,,0.00,VWS V13.01,2013-09-10 14:13:00,
2013-09-10 09:14:00,82.4,57.7,29.15,SSW,197,10.1,10.1,43,0.00,,,0.00,VWS V13.01,2013-09-10 14:14:00,
2013-09-10 09:15:00,82.2,61.2,29.15,SSW,193,11.0,11.0,49,0.00,,,0.00,VWS V13.01,2013-09-10 14:15:00,
2013-09-10 09:16:00,82.6,57.8,29.15,South,183,10.1,10.1,43,0.00,,,0.00,VWS V13.01,2013-09-10 14:16:00,
2013-09-10 09:17:00,82.8,58.0,29.15,South,182,8.1,8.1,43,0.00,,,0.00,VWS V13.01,2013-09-10 14:17:00,
2013-09-10 09:18:00,82.8,58.0,29.15,SSW,192,8.7,8.7,43,0.00,,,0.00,VWS V13.01,2013-09-10 14:18:00,
2013-09-10 09:19:00,83.3,58.5,29.15,SSW,196,8.1,8.1,43,0.00,,,0.00,VWS V13.01,2013-09-10 14:19:00,
2013-09-10 09:20:00,83.5,58.7,29.15,South,189,9.2,9.2,43,0.00,,,0.00,VWS V13.01,2013-09-10 14:20:00,
2013-09-10 09:21:00,83.5,58.7,29.15,South,187,7.2,7.2,43,0.00,,,0.00,VWS V13.01,2013-09-10 14:21:00,
2013-09-10 09:22:00,84.6,59.6,29.15,South,191,5.4,5.4,43,0.00,,,0.00,VWS V13.01,2013-09-10 14:22:00,
2013-09-10 09:23:00,85.5,60.4,29.15,South,184,7.6,7.6,43,0.00,,,0.00,VWS V13.01,2013-09-10 14:23:00,
2013-09-10 09:24:00,84.9,60.0,29.15,South,183,7.6,7.6,43,0.00,,,0.00,VWS V13.01,2013-09-10 14:24:00,
2013-09-10 09:25:00,85.6,60.6,29.15,SSW,192,5.8,5.8,43,0.00,,,0.00,VWS V13.01,2013-09-10 14:25:00,
2013-09-10 09:26:00,85.6,60.6,29.15,South,184,12.3,12.3,43,0.00,,,0.00,VWS V13.01,2013-09-10 14:26:00,
2013-09-10 09:27:00,83.8,59.0,29.15,South,181,8.3,8.3,43,0.00,,,0.00,VWS V13.01,2013-09-10 14:27:00,
2013-09-10 09:28:00,84.6,59.6,29.15,South,191,8.1,8.1,43,0.00,,,0.00,VWS V13.01,2013-09-10 14:28:00,
2013-09-10 09:29:00,84.2,59.3,29.15,South,181,8.1,8.1,43,0.00,,,0.00,VWS V13.01,2013-09-10 14:29:00,
2013-09-10 09:30:00,85.3,60.3,29.15,South,176,8.1,8.1,43,0.00,,,0.00,VWS V13.01,2013-09-10 14:30:00,
2013-09-10 09:31:00,84.7,59.8,29.15,South,187,11.0,11.0,43,0.00,,,0.00,VWS V13.01,2013-09-10 14:31:00,
2013-09-10 09:32:00,84.6,59.6,29.15,South,180,8.7,8.7,43,0.00,,,0.00,VWS V13.01,2013-09-10 14:32:00,
2013-09-10 09:33:00,84.7,59.8,29.15,SSW,193,8.7,8.7,43,0.00,,,0.00,VWS V13.01,2013-09-10 14:33:00,
2013-09-10 09:34:00,85.5,60.4,29.15,South,187,7.6,7.6,43,0.00,,,0.00,VWS V13.01,2013-09-10 14:34:00,
2013-09-10 09:35:00,85.1,60.1,29.15,South,188,8.3,8.3,43,0.00,,,0.00,VWS V13.01,2013-09-10 14:35:00,
2013-09-10 09:36:00,86.2,61.1,29.15,South,186,5.8,5.8,43,0.00,,,0.00,VWS V13.01,2013-09-10 14:36:00,
2013-09-10 09:37:00,86.7,61.6,29.15,South,190,8.1,8.1,43,0.00,,,0.00,VWS V13.01,2013-09-10 14:37:00,
2013-09-10 09:38:00,86.5,61.4,29.15,SSE,168,7.6,7.6,43,0.00,,,0.00,VWS V13.01,2013-09-10 14:38:00,
2013-09-10 09:39:00,86.7,61.6,29.15,South,189,6.3,6.3,43,0.00,,,0.00,VWS V13.01,2013-09-10 14:39:00,
2013-09-10 09:40:00,87.1,61.9,29.15,South,174,4.0,4.0,43,0.00,,,0.00,VWS V13.01,2013-09-10 14:40:00,
2013-09-10 09:41:00,87.1,61.9,29.15,South,188,8.1,8.1,43,0.00,,,0.00,VWS V13.01,2013-09-10 14:41:00,
2013-09-10 09:42:00,87.1,61.9,29.15,South,184,8.7,8.7,43,0.00,,,0.00,VWS V13.01,2013-09-10 14:42:00,
2013-09-10 09:43:00,86.9,61.7,29.15,South,185,8.7,8.7,43,0.00,,,0.00,VWS V13.01,2013-09-10 14:43:00,
2013-09-10 09:44:00,87.6,62.4,29.15,South,186,8.1,8.1,43,0.00,,,0.00,VWS V13.01,2013-09-10 14:44:00,
2013-09-10 09:45:00,87.8,58.3,29.15,SSW,192,5.8,5.8,37,0.00,,,0.00,VWS V13.01,2013-09-10 14:45:00,
2013-09-10 09:46:00,88.3,58.8,29.15,South,176,5.8,5.8,37,0.00,,,0.00,VWS V13.01,2013-09-10 14:46:00,
2013-09-10 09:47:00,88.3,58.8,29.15,SSW,193,4.0,4.0,37,0.00,,,0.00,VWS V13.01,2013-09-10 14:47:00,
2013-09-10 09:48:00,88.0,58.5,29.15,SSW,193,7.2,7.2,37,0.00,,,0.00,VWS V13.01,2013-09-10 14:48:00,
2013-09-10 09:49:00,88.7,59.1,29.15,SSW,193,3.6,3.6,37,0.00,,,0.00,VWS V13.01,2013-09-10 14:49:00,
2013-09-10 09:50:00,89.2,59.6,29.15,South,178,4.0,4.0,37,0.00,,,0.00,VWS V13.01,2013-09-10 14:50:00,
2013-09-10 09:51:00,89.2,59.6,29.15,South,191,8.1,8.1,37,0.00,,,0.00,VWS V13.01,2013-09-10 14:51:00,
2013-09-10 09:52:00,88.7,59.1,29.15,SSW,196,7.6,7.6,37,0.00,,,0.00,VWS V13.01,2013-09-10 14:52:00,
2013-09-10 09:53:00,88.2,58.6,29.15,SSW,198,4.0,4.0,37,0.00,,,0.00,VWS V13.01,2013-09-10 14:53:00,
2013-09-10 09:54:00,88.7,59.1,29.15,South,188,8.7,8.7,37,0.00,,,0.00,VWS V13.01,2013-09-10 14:54:00,
2013-09-10 09:55:00,89.2,59.6,29.15,South,191,5.8,5.8,37,0.00,,,0.00,VWS V13.01,2013-09-10 14:55:00,
2013-09-10 09:56:00,88.3,58.8,29.15,SSW,210,8.7,8.7,37,0.00,,,0.00,VWS V13.01,2013-09-10 14:56:00,
2013-09-10 09:57:00,88.3,58.8,29.15,South,184,9.2,9.2,37,0.00,,,0.00,VWS V13.01,2013-09-10 14:57:00,
2013-09-10 09:58:00,88.9,59.3,29.15,South,184,7.6,7.6,37,0.00,,,0.00,VWS V13.01,2013-09-10 14:58:00,
2013-09-10 09:59:00,88.5,59.0,29.15,South,187,10.1,10.1,37,0.00,,,0.00,VWS V13.01,2013-09-10 14:59:00,
2013-09-10 10:00:00,88.2,58.6,29.15,South,191,7.6,7.6,37,0.00,,,0.00,VWS V13.01,2013-09-10 15:00:00,
2013-09-10 10:01:00,87.6,62.4,29.15,South,189,8.7,8.7,43,0.00,,,0.00,VWS V13.01,2013-09-10 15:01:00,
2013-09-10 10:02:00,87.6,62.4,29.15,SSW,209,9.6,9.6,43,0.00,,,0.00,VWS V13.01,2013-09-10 15:02:00,
2013-09-10 10:03:00,88.0,58.5,29.15,South,185,5.8,5.8,37,0.00,,,0.00,VWS V13.01,2013-09-10 15:03:00,
2013-09-10 10:04:00,88.3,58.8,29.15,South,182,0.0,0.0,37,0.00,,,0.00,VWS V13.01,2013-09-10 15:04:00,
2013-09-10 10:05:00,88.5,59.0,29.15,South,180,5.8,5.8,37,0.00,,,0.00,VWS V13.01,2013-09-10 15:05:00,
2013-09-10 10:06:00,86.4,61.2,29.15,South,181,8.1,8.1,43,0.00,,,0.00,VWS V13.01,2013-09-10 15:06:00,
2013-09-10 10:07:00,85.6,60.6,29.15,South,184,8.7,8.7,43,0.00,,,0.00,VWS V13.01,2013-09-10 15:07:00,
2013-09-10 10:08:00,86.0,60.9,29.15,South,187,12.8,12.8,43,0.00,,,0.00,VWS V13.01,2013-09-10 15:08:00,
2013-09-10 10:09:00,85.5,60.4,29.15,SSW,197,10.1,10.1,43,0.00,,,0.00,VWS V13.01,2013-09-10 15:09:00,
2013-09-10 10:10:00,86.2,61.1,29.15,South,182,6.3,6.3,43,0.00,,,0.00,VWS V13.01,2013-09-10 15:10:00,
2013-09-10 10:11:00,86.4,61.2,29.15,South,177,10.5,10.5,43,0.00,,,0.00,VWS V13.01,2013-09-10 15:11:00,
2013-09-10 10:12:00,87.1,61.9,29.15,SSW,209,6.3,6.3,43,0.00,,,0.00,VWS V13.01,2013-09-10 15:12:00,
2013-09-10 10:13:00,87.1,61.9,29.15,South,188,9.6,9.6,43,0.00,,,0.00,VWS V13.01,2013-09-10 15:13:00,
2013-09-10 10:14:00,87.4,62.2,29.15,South,189,8.3,8.3,43,0.00,,,0.00,VWS V13.01,2013-09-10 15:14:00,
2013-09-10 10:15:00,87.8,58.3,29.15,SSW,194,8.7,8.7,37,0.00,,,0.00,VWS V13.01,2013-09-10 15:15:00,
2013-09-10 10:16:00,87.1,61.9,29.15,SSW,196,5.4,5.4,43,0.00,,,0.00,VWS V13.01,2013-09-10 15:16:00,
2013-09-10 10:17:00,87.1,61.9,29.15,SSW,193,8.1,8.1,43,0.00,,,0.00,VWS V13.01,2013-09-10 15:17:00,
2013-09-10 10:18:00,86.2,61.1,29.15,South,187,11.0,11.0,43,0.00,,,0.00,VWS V13.01,2013-09-10 15:18:00,
2013-09-10 10:19:00,86.4,61.2,29.15,South,182,6.7,6.7,43,0.00,,,0.00,VWS V13.01,2013-09-10 15:19:00,
2013-09-10 10:20:00,85.8,60.8,29.15,SSW,195,8.1,8.1,43,0.00,,,0.00,VWS V13.01,2013-09-10 15:20:00,
2013-09-10 10:21:00,85.5,60.4,29.15,South,178,10.1,10.1,43,0.00,,,0.00,VWS V13.01,2013-09-10 15:21:00,
2013-09-10 10:22:00,86.2,61.1,29.15,SSW,197,8.7,8.7,43,0.00,,,0.00,VWS V13.01,2013-09-10 15:22:00,
2013-09-10 10:23:00,86.2,61.1,29.15,South,173,10.1,10.1,43,0.00,,,0.00,VWS V13.01,2013-09-10 15:23:00,
2013-09-10 10:24:00,86.2,61.1,29.15,South,181,10.1,10.1,43,0.00,,,0.00,VWS V13.01,2013-09-10 15:24:00,
2013-09-10 10:25:00,86.4,61.2,29.15,South,189,8.1,8.1,43,0.00,,,0.00,VWS V13.01,2013-09-10 15:25:00,
2013-09-10 10:26:00,86.5,61.4,29.15,South,176,6.7,6.7,43,0.00,,,0.00,VWS V13.01,2013-09-10 15:26:00,
2013-09-10 10:27:00,87.8,58.3,29.15,SSW,203,3.6,3.6,37,0.00,,,0.00,VWS V13.01,2013-09-10 15:27:00,
2013-09-10 10:28:00,87.8,58.3,29.15,South,178,9.6,9.6,37,0.00,,,0.00,VWS V13.01,2013-09-10 15:28:00,
2013-09-10 10:29:00,88.3,58.8,29.15,South,180,8.3,8.3,37,0.00,,,0.00,VWS V13.01,2013-09-10 15:29:00,
2013-09-10 10:30:00,88.2,58.6,29.15,South,191,7.2,7.2,37,0.00,,,0.00,VWS V13.01,2013-09-10 15:30:00,
2013-09-10 10:31:00,87.4,62.2,29.15,South,182,12.3,12.3,43,0.00,,,0.00,VWS V13.01,2013-09-10 15:31:00,
2013-09-10 10:32:00,87.1,61.9,29.15,SSW,201,7.6,7.6,43,0.00,,,0.00,VWS V13.01,2013-09-10 15:32:00,
2013-09-10 10:33:00,87.3,62.1,29.15,SSW,199,8.1,8.1,43,0.00,,,0.00,VWS V13.01,2013-09-10 15:33:00,
2013-09-10 10:34:00,87.4,62.2,29.15,SSW,195,8.7,8.7,43,0.00,,,0.00,VWS V13.01,2013-09-10 15:34:00,
2013-09-10 10:35:00,87.3,62.1,29.15,South,185,8.1,8.1,43,0.00,,,0.00,VWS V13.01,2013-09-10 15:35:00,
2013-09-10 10:36:00,87.4,62.2,29.15,SSW,202,5.4,5.4,43,0.00,,,0.00,VWS V13.01,2013-09-10 15:36:00,
2013-09-10 10:37:00,87.4,62.2,29.15,SSW,194,10.5,10.5,43,0.00,,,0.00,VWS V13.01,2013-09-10 15:37:00,
2013-09-10 10:38:00,87.4,62.2,29.15,South,178,13.2,13.2,43,0.00,,,0.00,VWS V13.01,2013-09-10 15:38:00,
2013-09-10 10:39:00,87.4,62.2,29.15,South,180,12.8,12.8,43,0.00,,,0.00,VWS V13.01,2013-09-10 15:39:00,
2013-09-10 10:40:00,87.1,61.9,29.15,South,190,10.5,10.5,43,0.00,,,0.00,VWS V13.01,2013-09-10 15:40:00,
2013-09-10 10:41:00,87.3,62.1,29.15,South,175,8.3,8.3,43,0.00,,,0.00,VWS V13.01,2013-09-10 15:41:00,
2013-09-10 10:42:00,87.1,61.9,29.15,South,184,6.3,6.3,43,0.00,,,0.00,VWS V13.01,2013-09-10 15:42:00,
2013-09-10 10:43:00,87.3,62.1,29.15,SSW,194,10.5,10.5,43,0.00,,,0.00,VWS V13.01,2013-09-10 15:43:00,
2013-09-10 10:44:00,87.1,61.9,29.15,SSW,195,8.1,8.1,43,0.00,,,0.00,VWS V13.01,2013-09-10 15:44:00,
2013-09-10 10:45:00,86.7,61.6,29.15,South,186,10.1,10.1,43,0.00,,,0.00,VWS V13.01,2013-09-10 15:45:00,
2013-09-10 10:46:00,87.3,62.1,29.15,South,186,12.3,12.3,43,0.00,,,0.00,VWS V13.01,2013-09-10 15:46:00,
2013-09-10 10:47:00,87.3,62.1,29.15,SSW,193,12.8,12.8,43,0.00,,,0.00,VWS V13.01,2013-09-10 15:47:00,
2013-09-10 10:48:00,87.3,62.1,29.15,South,187,10.5,10.5,43,0.00,,,0.00,VWS V13.01,2013-09-10 15:48:00,
2013-09-10 10:49:00,88.3,58.8,29.15,South,191,8.7,8.7,37,0.00,,,0.00,VWS V13.01,2013-09-10 15:49:00,
2013-09-10 10:50:00,89.6,59.9,29.15,SSW,193,5.8,5.8,37,0.00,,,0.00,VWS V13.01,2013-09-10 15:50:00,
2013-09-10 10:51:00,90.5,60.7,29.15,South,187,3.1,3.1,37,0.00,,,0.00,VWS V13.01,2013-09-10 15:51:00,
2013-09-10 10:52:00,90.5,60.7,29.15,South,173,5.8,5.8,37,0.00,,,0.00,VWS V13.01,2013-09-10 15:52:00,
2013-09-10 10:53:00,90.5,60.7,29.15,SSW,195,12.3,12.3,37,0.00,,,0.00,VWS V13.01,2013-09-10 15:53:00,
2013-09-10 10:54:00,89.2,59.6,29.15,SSW,193,11.9,11.9,37,0.00,,,0.00,VWS V13.01,2013-09-10 15:54:00,
2013-09-10 10:55:00,89.6,59.9,29.15,SSW,192,5.8,5.8,37,0.00,,,0.00,VWS V13.01,2013-09-10 15:55:00,
2013-09-10 10:56:00,90.1,60.4,29.15,South,187,11.0,11.0,37,0.00,,,0.00,VWS V13.01,2013-09-10 15:56:00,
2013-09-10 10:57:00,90.5,60.7,29.15,South,170,10.1,10.1,37,0.00,,,0.00,VWS V13.01,2013-09-10 15:57:00,
2013-09-10 10:58:00,92.1,57.2,29.15,SSW,200,5.8,5.8,31,0.00,,,0.00,VWS V13.01,2013-09-10 15:58:00,
2013-09-10 10:59:00,91.2,61.3,29.15,SSW,202,11.4,11.4,37,0.00,,,0.00,VWS V13.01,2013-09-10 15:59:00,
2013-09-10 11:00:00,91.4,56.5,29.15,South,185,8.7,8.7,31,0.00,,,0.00,VWS V13.01,2013-09-10 16:00:00,
2013-09-10 11:01:00,91.4,56.5,29.15,South,189,13.2,13.2,31,0.00,,,0.00,VWS V13.01,2013-09-10 16:01:00,
2013-09-10 11:02:00,89.6,59.9,29.15,South,181,11.9,11.9,37,0.00,,,0.00,VWS V13.01,2013-09-10 16:02:00,
2013-09-10 11:03:00,89.8,60.1,29.15,South,176,15.4,15.4,37,0.00,,,0.00,VWS V13.01,2013-09-10 16:03:00,
2013-09-10 11:04:00,89.8,60.1,29.15,SSW,209,9.6,9.6,37,0.00,,,0.00,VWS V13.01,2013-09-10 16:04:00,
2013-09-10 11:05:00,90.9,61.0,29.15,SSW,205,8.3,8.3,37,0.00,,,0.00,VWS V13.01,2013-09-10 16:05:00,
2013-09-10 11:06:00,90.9,61.0,29.15,SSW,195,9.2,9.2,37,0.00,,,0.00,VWS V13.01,2013-09-10 16:06:00,
2013-09-10 11:07:00,90.9,61.0,29.15,South,180,6.3,6.3,37,0.00,,,0.00,VWS V13.01,2013-09-10 16:07:00,
2013-09-10 11:08:00,92.7,57.6,29.15,SSW,206,3.6,3.6,31,0.00,,,0.00,VWS V13.01,2013-09-10 16:08:00,
2013-09-10 11:09:00,93.2,58.1,29.15,SSE,168,8.1,8.1,31,0.00,,,0.00,VWS V13.01,2013-09-10 16:09:00,
2013-09-10 11:10:00,93.2,58.1,29.15,SSW,207,4.9,4.9,31,0.00,,,0.00,VWS V13.01,2013-09-10 16:10:00,
2013-09-10 11:11:00,93.2,58.1,29.15,SSW,207,3.1,3.1,31,0.00,,,0.00,VWS V13.01,2013-09-10 16:11:00,
2013-09-10 11:12:00,94.1,58.9,29.15,SSW,198,3.1,3.1,31,0.00,,,0.00,VWS V13.01,2013-09-10 16:12:00,
2013-09-10 11:13:00,94.5,59.2,29.15,South,179,6.3,6.3,31,0.00,,,0.00,VWS V13.01,2013-09-10 16:13:00,
2013-09-10 11:14:00,94.5,59.2,29.15,SSW,208,8.3,8.3,31,0.00,,,0.00,VWS V13.01,2013-09-10 16:14:00,
2013-09-10 11:15:00,92.3,57.3,29.15,South,186,8.3,8.3,31,0.00,,,0.00,VWS V13.01,2013-09-10 16:15:00,
2013-09-10 11:16:00,92.3,57.3,29.15,South,184,8.1,8.1,31,0.00,,,0.00,VWS V13.01,2013-09-10 16:16:00,
2013-09-10 11:17:00,92.1,57.2,29.15,South,187,5.8,5.8,31,0.00,,,0.00,VWS V13.01,2013-09-10 16:17:00,
2013-09-10 11:18:00,91.9,57.0,29.15,South,186,12.8,12.8,31,0.00,,,0.00,VWS V13.01,2013-09-10 16:18:00,
2013-09-10 11:19:00,91.2,61.3,29.15,South,187,11.0,11.0,37,0.00,,,0.00,VWS V13.01,2013-09-10 16:19:00,
2013-09-10 11:20:00,92.5,57.5,29.15,SSW,204,5.4,5.4,31,0.00,,,0.00,VWS V13.01,2013-09-10 16:20:00,
2013-09-10 11:21:00,92.5,57.5,29.15,South,190,5.4,5.4,31,0.00,,,0.00,VWS V13.01,2013-09-10 16:21:00,
2013-09-10 11:22:00,92.8,57.8,29.15,South,184,6.3,6.3,31,0.00,,,0.00,VWS V13.01,2013-09-10 16:22:00,
2013-09-10 11:23:00,94.1,58.9,29.15,SSW,193,5.4,5.4,31,0.00,,,0.00,VWS V13.01,2013-09-10 16:23:00,
2013-09-10 11:24:00,91.8,56.9,29.15,South,186,12.8,12.8,31,0.00,,,0.00,VWS V13.01,2013-09-10 16:24:00,
2013-09-10 11:25:00,91.2,61.3,29.15,South,179,8.1,8.1,37,0.00,,,0.00,VWS V13.01,2013-09-10 16:25:00,
2013-09-10 11:26:00,92.1,57.2,29.15,South,179,4.9,4.9,31,0.00,,,0.00,VWS V13.01,2013-09-10 16:26:00,
2013-09-10 11:27:00,93.0,57.9,29.15,South,178,8.3,8.3,31,0.00,,,0.00,VWS V13.01,2013-09-10 16:27:00,
2013-09-10 11:28:00,91.4,56.5,29.15,South,179,10.1,10.1,31,0.00,,,0.00,VWS V13.01,2013-09-10 16:28:00,
2013-09-10 11:29:00,90.1,60.4,29.15,South,178,10.1,10.1,37,0.00,,,0.00,VWS V13.01,2013-09-10 16:29:00,
2013-09-10 11:30:00,90.3,60.5,29.15,SSW,199,7.6,7.6,37,0.00,,,0.00,VWS V13.01,2013-09-10 16:30:00,
2013-09-10 11:31:00,91.0,61.2,29.15,South,185,6.3,6.3,37,0.00,,,0.00,VWS V13.01,2013-09-10 16:31:00,
2013-09-10 11:32:00,90.7,60.9,29.15,South,188,10.5,10.5,37,0.00,,,0.00,VWS V13.01,2013-09-10 16:32:00,
2013-09-10 11:33:00,90.1,60.4,29.15,SSW,195,6.3,6.3,37,0.00,,,0.00,VWS V13.01,2013-09-10 16:33:00,
2013-09-10 11:34:00,90.9,61.0,29.15,SSW,194,12.8,12.8,37,0.00,,,0.00,VWS V13.01,2013-09-10 16:34:00,
2013-09-10 11:35:00,89.6,59.9,29.15,South,178,11.0,11.0,37,0.00,,,0.00,VWS V13.01,2013-09-10 16:35:00,
2013-09-10 11:36:00,89.8,60.1,29.15,SSW,192,5.4,5.4,37,0.00,,,0.00,VWS V13.01,2013-09-10 16:36:00,
2013-09-10 11:37:00,90.1,60.4,29.15,SSW,195,8.3,8.3,37,0.00,,,0.00,VWS V13.01,2013-09-10 16:37:00,
2013-09-10 11:38:00,90.1,60.4,29.15,South,189,14.1,14.1,37,0.00,,,0.00,VWS V13.01,2013-09-10 16:38:00,
2013-09-10 11:39:00,90.1,60.4,29.15,SSW,201,7.6,7.6,37,0.00,,,0.00,VWS V13.01,2013-09-10 16:39:00,
2013-09-10 11:40:00,90.7,60.9,29.15,SSW,202,4.0,4.0,37,0.00,,,0.00,VWS V13.01,2013-09-10 16:40:00,
2013-09-10 11:41:00,90.7,60.9,29.15,SSW,196,6.3,6.3,37,0.00,,,0.00,VWS V13.01,2013-09-10 16:41:00,
2013-09-10 11:42:00,91.2,61.3,29.15,South,186,8.7,8.7,37,0.00,,,0.00,VWS V13.01,2013-09-10 16:42:00,
2013-09-10 11:43:00,91.6,56.7,29.15,South,189,10.1,10.1,31,0.00,,,0.00,VWS V13.01,2013-09-10 16:43:00,
2013-09-10 11:44:00,91.4,56.5,29.15,SSW,198,8.1,8.1,31,0.00,,,0.00,VWS V13.01,2013-09-10 16:44:00,
2013-09-10 11:45:00,90.7,60.9,29.15,South,181,7.6,7.6,37,0.00,,,0.00,VWS V13.01,2013-09-10 16:45:00,
2013-09-10 11:46:00,91.2,61.3,29.15,SSW,207,4.0,4.0,37,0.00,,,0.00,VWS V13.01,2013-09-10 16:46:00,
2013-09-10 11:47:00,91.6,56.7,29.15,SSE,155,3.6,3.6,31,0.00,,,0.00,VWS V13.01,2013-09-10 16:47:00,
2013-09-10 11:48:00,91.6,56.7,29.15,South,175,5.8,5.8,31,0.00,,,0.00,VWS V13.01,2013-09-10 16:48:00,
2013-09-10 11:49:00,91.2,61.3,29.15,SSW,196,10.1,10.1,37,0.00,,,0.00,VWS V13.01,2013-09-10 16:49:00,
2013-09-10 11:50:00,91.2,61.3,29.15,SW,219,4.0,4.0,37,0.00,,,0.00,VWS V13.01,2013-09-10 16:50:00,
2013-09-10 11:51:00,91.4,56.5,29.15,WSW,252,3.6,3.6,31,0.00,,,0.00,VWS V13.01,2013-09-10 16:51:00,
2013-09-10 11:52:00,91.6,56.7,29.15,South,170,7.2,7.2,31,0.00,,,0.00,VWS V13.01,2013-09-10 16:52:00,
2013-09-10 11:53:00,90.7,60.9,29.15,South,190,10.1,10.1,37,0.00,,,0.00,VWS V13.01,2013-09-10 16:53:00,
2013-09-10 11:54:00,90.7,60.9,29.15,SSW,208,13.6,13.6,37,0.00,,,0.00,VWS V13.01,2013-09-10 16:54:00,
2013-09-10 11:55:00,90.1,60.4,29.15,SSW,192,8.7,8.7,37,0.00,,,0.00,VWS V13.01,2013-09-10 16:55:00,
2013-09-10 11:56:00,90.1,60.4,29.15,SSW,192,17.9,17.9,37,0.00,,,0.00,VWS V13.01,2013-09-10 16:56:00,
2013-09-10 11:57:00,89.8,60.1,29.15,South,189,11.0,11.0,37,0.00,,,0.00,VWS V13.01,2013-09-10 16:57:00,
2013-09-10 11:58:00,89.8,60.1,29.15,South,189,12.8,12.8,37,0.00,,,0.00,VWS V13.01,2013-09-10 16:58:00,
2013-09-10 11:59:00,90.3,60.5,29.15,SSW,208,4.9,4.9,37,0.00,,,0.00,VWS V13.01,2013-09-10 16:59:00,
2013-09-10 12:00:00,90.3,60.5,29.15,South,191,13.2,13.2,37,0.00,,,0.00,VWS V13.01,2013-09-10 17:00:00,
2013-09-10 12:01:00,90.5,60.7,29.15,SSW,196,11.0,11.0,37,0.00,,,0.00,VWS V13.01,2013-09-10 17:01:00,
2013-09-10 12:02:00,90.5,60.7,29.15,SSW,193,8.3,8.3,37,0.00,,,0.00,VWS V13.01,2013-09-10 17:02:00,
2013-09-10 12:03:00,91.2,61.3,29.15,SSW,205,6.3,6.3,37,0.00,,,0.00,VWS V13.01,2013-09-10 17:03:00,
2013-09-10 12:04:00,91.4,56.5,29.15,SSW,194,10.1,10.1,31,0.00,,,0.00,VWS V13.01,2013-09-10 17:04:00,
2013-09-10 12:05:00,91.0,61.2,29.15,SSW,195,11.0,11.0,37,0.00,,,0.00,VWS V13.01,2013-09-10 17:05:00,
2013-09-10 12:06:00,91.6,56.7,29.15,South,183,8.7,8.7,31,0.00,,,0.00,VWS V13.01,2013-09-10 17:06:00,
2013-09-10 12:07:00,91.8,56.9,29.15,South,183,10.1,10.1,31,0.00,,,0.00,VWS V13.01,2013-09-10 17:07:00,
2013-09-10 12:08:00,91.4,56.5,29.15,SSW,197,10.5,10.5,31,0.00,,,0.00,VWS V13.01,2013-09-10 17:08:00,
2013-09-10 12:09:00,91.2,61.3,29.15,South,173,8.3,8.3,37,0.00,,,0.00,VWS V13.01,2013-09-10 17:09:00,
2013-09-10 12:10:00,91.4,56.5,29.15,South,178,17.0,17.0,31,0.00,,,0.00,VWS V13.01,2013-09-10 17:10:00,
2013-09-10 12:11:00,91.4,56.5,29.15,South,190,8.3,8.3,31,0.00,,,0.00,VWS V13.01,2013-09-10 17:11:00,
2013-09-10 12:12:00,91.4,56.5,29.15,SSW,192,14.5,14.5,31,0.00,,,0.00,VWS V13.01,2013-09-10 17:12:00,
2013-09-10 12:13:00,91.2,61.3,29.15,South,184,13.2,13.2,37,0.00,,,0.00,VWS V13.01,2013-09-10 17:13:00,
2013-09-10 12:14:00,91.0,61.2,29.15,South,184,12.8,12.8,37,0.00,,,0.00,VWS V13.01,2013-09-10 17:14:00,
2013-09-10 12:15:00,91.2,61.3,29.15,South,187,8.1,8.1,37,0.00,,,0.00,VWS V13.01,2013-09-10 17:15:00,
2013-09-10 12:16:00,91.6,56.7,29.15,SSW,192,11.0,11.0,31,0.00,,,0.00,VWS V13.01,2013-09-10 17:16:00,
2013-09-10 12:17:00,91.4,56.5,29.15,South,184,11.0,11.0,31,0.00,,,0.00,VWS V13.01,2013-09-10 17:17:00,
2013-09-10 12:18:00,91.4,56.5,29.15,SSW,202,9.6,9.6,31,0.00,,,0.00,VWS V13.01,2013-09-10 17:18:00,
2013-09-10 12:19:00,91.9,57.0,29.15,SW,215,10.1,10.1,31,0.00,,,0.00,VWS V13.01,2013-09-10 17:19:00,
2013-09-10 12:20:00,91.9,57.0,29.15,South,186,7.6,7.6,31,0.00,,,0.00,VWS V13.01,2013-09-10 17:20:00,
2013-09-10 12:21:00,91.8,56.9,29.15,South,189,13.2,13.2,31,0.00,,,0.00,VWS V13.01,2013-09-10 17:21:00,
2013-09-10 12:22:00,90.9,61.0,29.15,SSW,194,15.0,15.0,37,0.00,,,0.00,VWS V13.01,2013-09-10 17:22:00,
2013-09-10 12:23:00,90.1,60.4,29.15,SSW,193,12.3,12.3,37,0.00,,,0.00,VWS V13.01,2013-09-10 17:23:00,
2013-09-10 12:24:00,91.2,61.3,29.15,SSW,192,10.5,10.5,37,0.00,,,0.00,VWS V13.01,2013-09-10 17:24:00,
2013-09-10 12:25:00,91.2,61.3,29.15,SSW,194,11.0,11.0,37,0.00,,,0.00,VWS V13.01,2013-09-10 17:25:00,
2013-09-10 12:26:00,91.0,61.2,29.15,South,182,7.2,7.2,37,0.00,,,0.00,VWS V13.01,2013-09-10 17:26:00,
2013-09-10 12:27:00,91.0,61.2,29.15,South,173,13.2,13.2,37,0.00,,,0.00,VWS V13.01,2013-09-10 17:27:00,
2013-09-10 12:28:00,91.2,61.3,29.15,South,187,8.1,8.1,37,0.00,,,0.00,VWS V13.01,2013-09-10 17:28:00,
2013-09-10 12:29:00,91.6,56.7,29.15,South,185,15.4,15.4,31,0.00,,,0.00,VWS V13.01,2013-09-10 17:29:00,
2013-09-10 12:30:00,91.6,56.7,29.15,South,189,12.8,12.8,31,0.00,,,0.00,VWS V13.01,2013-09-10 17:30:00,
2013-09-10 12:31:00,91.2,61.3,29.15,South,177,16.8,16.8,37,0.00,,,0.00,VWS V13.01,2013-09-10 17:31:00,
2013-09-10 12:32:00,91.4,56.5,29.15,SW,216,8.7,8.7,31,0.00,,,0.00,VWS V13.01,2013-09-10 17:32:00,
2013-09-10 12:33:00,91.6,56.7,29.15,SSW,208,8.1,8.1,31,0.00,,,0.00,VWS V13.01,2013-09-10 17:33:00,
2013-09-10 12:34:00,92.3,57.3,29.15,SSW,192,7.6,7.6,31,0.00,,,0.00,VWS V13.01,2013-09-10 17:34:00,
2013-09-10 12:35:00,92.3,57.3,29.15,SSW,192,7.6,7.6,31,0.00,,,0.00,VWS V13.01,2013-09-10 17:35:00,
2013-09-10 12:36:00,91.9,57.0,29.15,SSW,195,16.3,16.3,31,0.00,,,0.00,VWS V13.01,2013-09-10 17:36:00,
2013-09-10 12:37:00,91.8,56.9,29.15,SSE,166,5.8,5.8,31,0.00,,,0.00,VWS V13.01,2013-09-10 17:37:00,
2013-09-10 12:38:00,92.1,57.2,29.15,South,180,8.7,8.7,31,0.00,,,0.00,VWS V13.01,2013-09-10 17:38:00,
2013-09-10 12:39:00,92.5,57.5,29.15,SSW,192,12.8,12.8,31,0.00,,,0.00,VWS V13.01,2013-09-10 17:39:00,
2013-09-10 12:40:00,92.7,57.6,29.15,SSW,207,8.1,8.1,31,0.00,,,0.00,VWS V13.01,2013-09-10 17:40:00,
2013-09-10 12:41:00,92.8,57.8,29.15,South,179,8.3,8.3,31,0.00,,,0.00,VWS V13.01,2013-09-10 17:41:00,
2013-09-10 12:42:00,92.5,57.5,29.15,SSW,194,12.8,12.8,31,0.00,,,0.00,VWS V13.01,2013-09-10 17:42:00,
2013-09-10 12:43:00,92.5,57.5,29.15,SSW,205,15.4,15.4,31,0.00,,,0.00,VWS V13.01,2013-09-10 17:43:00,
2013-09-10 12:44:00,92.8,57.8,29.15,SW,222,5.4,5.4,31,0.00,,,0.00,VWS V13.01,2013-09-10 17:44:00,
2013-09-10 12:45:00,93.0,57.9,29.15,SSE,159,9.6,9.6,31,0.00,,,0.00,VWS V13.01,2013-09-10 17:45:00,
2013-09-10 12:46:00,93.0,57.9,29.15,South,190,8.7,8.7,31,0.00,,,0.00,VWS V13.01,2013-09-10 17:46:00,
2013-09-10 12:47:00,93.0,57.9,29.15,SSW,212,10.5,10.5,31,0.00,,,0.00,VWS V13.01,2013-09-10 17:47:00,
2013-09-10 12:48:00,93.2,58.1,29.15,SSW,205,12.3,12.3,31,0.00,,,0.00,VWS V13.01,2013-09-10 17:48:00,
2013-09-10 12:49:00,92.3,57.3,29.15,SSW,202,11.0,11.0,31,0.00,,,0.00,VWS V13.01,2013-09-10 17:49:00,
2013-09-10 12:50:00,93.0,57.9,29.15,South,175,5.8,5.8,31,0.00,,,0.00,VWS V13.01,2013-09-10 17:50:00,
2013-09-10 12:51:00,93.0,57.9,29.15,SSW,196,10.5,10.5,31,0.00,,,0.00,VWS V13.01,2013-09-10 17:51:00,
2013-09-10 12:52:00,92.7,57.6,29.15,SSW,197,16.3,16.3,31,0.00,,,0.00,VWS V13.01,2013-09-10 17:52:00,
2013-09-10 12:53:00,93.0,57.9,29.15,South,172,8.3,8.3,31,0.00,,,0.00,VWS V13.01,2013-09-10 17:53:00,
2013-09-10 12:54:00,93.6,58.4,29.15,SSW,199,8.7,8.7,31,0.00,,,0.00,VWS V13.01,2013-09-10 17:54:00,
2013-09-10 12:55:00,94.1,58.9,29.15,South,172,5.8,5.8,31,0.00,,,0.00,VWS V13.01,2013-09-10 17:55:00,
2013-09-10 12:56:00,94.5,59.2,29.15,South,178,8.1,8.1,31,0.00,,,0.00,VWS V13.01,2013-09-10 17:56:00,
2013-09-10 12:57:00,94.5,59.2,29.15,South,185,8.3,8.3,31,0.00,,,0.00,VWS V13.01,2013-09-10 17:57:00,
2013-09-10 12:58:00,94.5,59.2,29.15,South,181,9.6,9.6,31,0.00,,,0.00,VWS V13.01,2013-09-10 17:58:00,
2013-09-10 12:59:00,93.9,58.7,29.15,SSW,198,10.1,10.1,31,0.00,,,0.00,VWS V13.01,2013-09-10 17:59:00,
2013-09-10 13:00:00,95.2,59.8,29.15,SSW,197,7.6,7.6,31,0.00,,,0.00,VWS V13.01,2013-09-10 18:00:00,
2013-09-10 13:01:00,95.2,59.8,29.15,SW,232,3.6,3.6,31,0.00,,,0.00,VWS V13.01,2013-09-10 18:01:00,
2013-09-10 13:02:00,95.9,60.4,29.15,SW,220,3.1,3.1,31,0.00,,,0.00,VWS V13.01,2013-09-10 18:02:00,
2013-09-10 13:03:00,96.1,60.6,29.15,South,183,10.5,10.5,31,0.00,,,0.00,VWS V13.01,2013-09-10 18:03:00,
2013-09-10 13:04:00,95.0,59.7,29.15,South,184,8.7,8.7,31,0.00,,,0.00,VWS V13.01,2013-09-10 18:04:00,
2013-09-10 13:05:00,94.1,58.9,29.15,South,187,11.0,11.0,31,0.00,,,0.00,VWS V13.01,2013-09-10 18:05:00,
2013-09-10 13:06:00,93.7,58.6,29.15,SSW,197,10.5,10.5,31,0.00,,,0.00,VWS V13.01,2013-09-10 18:06:00,
2013-09-10 13:07:00,94.1,58.9,29.15,SSW,197,12.3,12.3,31,0.00,,,0.00,VWS V13.01,2013-09-10 18:07:00,
2013-09-10 13:08:00,94.1,58.9,29.15,SSW,195,12.8,12.8,31,0.00,,,0.00,VWS V13.01,2013-09-10 18:08:00,
2013-09-10 13:09:00,94.5,59.2,29.15,South,185,8.1,8.1,31,0.00,,,0.00,VWS V13.01,2013-09-10 18:09:00,
2013-09-10 13:10:00,94.5,59.2,29.12,South,185,12.3,12.3,31,0.00,,,0.00,VWS V13.01,2013-09-10 18:10:00,
2013-09-10 13:11:00,94.5,59.2,29.12,SW,218,8.3,8.3,31,0.00,,,0.00,VWS V13.01,2013-09-10 18:11:00,
2013-09-10 13:12:00,95.7,60.3,29.12,SSW,209,8.1,8.1,31,0.00,,,0.00,VWS V13.01,2013-09-10 18:12:00,
2013-09-10 13:13:00,96.6,61.0,29.12,SW,222,5.4,5.4,31,0.00,,,0.00,VWS V13.01,2013-09-10 18:13:00,
2013-09-10 13:14:00,97.7,56.0,29.12,South,176,10.1,10.1,25,0.00,,,0.00,VWS V13.01,2013-09-10 18:14:00,
2013-09-10 13:15:00,96.4,60.9,29.12,South,178,8.7,8.7,31,0.00,,,0.00,VWS V13.01,2013-09-10 18:15:00,
2013-09-10 13:16:00,96.6,61.0,29.12,SSE,167,8.3,8.3,31,0.00,,,0.00,VWS V13.01,2013-09-10 18:16:00,
2013-09-10 13:17:00,94.3,59.0,29.12,SSW,196,12.3,12.3,31,0.00,,,0.00,VWS V13.01,2013-09-10 18:17:00,
2013-09-10 13:18:00,94.5,59.2,29.12,SSW,198,10.5,10.5,31,0.00,,,0.00,VWS V13.01,2013-09-10 18:18:00,
2013-09-10 13:19:00,94.8,59.5,29.12,SSW,196,8.7,8.7,31,0.00,,,0.00,VWS V13.01,2013-09-10 18:19:00,
2013-09-10 13:20:00,95.4,60.0,29.12,SSW,196,8.1,8.1,31,0.00,,,0.00,VWS V13.01,2013-09-10 18:20:00,
2013-09-10 13:21:00,95.5,60.1,29.12,SSW,198,10.1,10.1,31,0.00,,,0.00,VWS V13.01,2013-09-10 18:21:00,
2013-09-10 13:22:00,95.4,60.0,29.12,South,187,11.0,11.0,31,0.00,,,0.00,VWS V13.01,2013-09-10 18:22:00,
2013-09-10 13:23:00,95.4,60.0,29.12,South,185,11.4,11.4,31,0.00,,,0.00,VWS V13.01,2013-09-10 18:23:00,
2013-09-10 13:24:00,94.3,59.0,29.12,SSW,193,11.0,11.0,31,0.00,,,0.00,VWS V13.01,2013-09-10 18:24:00,
2013-09-10 13:25:00,95.4,60.0,29.12,SSW,205,8.1,8.1,31,0.00,,,0.00,VWS V13.01,2013-09-10 18:25:00,
2013-09-10 13:26:00,94.6,59.3,29.12,SSE,168,15.4,15.4,31,0.00,,,0.00,VWS V13.01,2013-09-10 18:26:00,
2013-09-10 13:27:00,94.8,59.5,29.12,South,184,8.1,8.1,31,0.00,,,0.00,VWS V13.01,2013-09-10 18:27:00,
2013-09-10 13:28:00,95.9,60.4,29.12,SSW,201,8.7,8.7,31,0.00,,,0.00,VWS V13.01,2013-09-10 18:28:00,
2013-09-10 13:29:00,95.4,60.0,29.12,South,179,15.0,15.0,31,0.00,,,0.00,VWS V13.01,2013-09-10 18:29:00,
2013-09-10 13:30:00,94.5,59.2,29.12,South,184,15.0,15.0,31,0.00,,,0.00,VWS V13.01,2013-09-10 18:30:00,
2013-09-10 13:31:00,95.2,59.8,29.12,SSW,193,8.7,8.7,31,0.00,,,0.00,VWS V13.01,2013-09-10 18:31:00,
2013-09-10 13:32:00,95.2,59.8,29.12,SW,220,13.2,13.2,31,0.00,,,0.00,VWS V13.01,2013-09-10 18:32:00,
2013-09-10 13:33:00,96.3,60.7,29.12,South,171,10.5,10.5,31,0.00,,,0.00,VWS V13.01,2013-09-10 18:33:00,
2013-09-10 13:34:00,95.9,60.4,29.12,SSW,200,12.3,12.3,31,0.00,,,0.00,VWS V13.01,2013-09-10 18:34:00,
2013-09-10 13:35:00,95.2,59.8,29.12,SSW,199,8.7,8.7,31,0.00,,,0.00,VWS V13.01,2013-09-10 18:35:00,
2013-09-10 13:36:00,95.9,60.4,29.12,SSW,212,5.4,5.4,31,0.00,,,0.00,VWS V13.01,2013-09-10 18:36:00,
2013-09-10 13:37:00,98.4,56.6,29.12,South,187,5.4,5.4,25,0.00,,,0.00,VWS V13.01,2013-09-10 18:37:00,
2013-09-10 13:38:00,98.2,56.4,29.12,South,181,7.2,7.2,25,0.00,,,0.00,VWS V13.01,2013-09-10 18:38:00,
2013-09-10 13:39:00,96.6,61.0,29.12,SSW,192,8.7,8.7,31,0.00,,,0.00,VWS V13.01,2013-09-10 18:39:00,
2013-09-10 13:40:00,95.4,60.0,29.12,South,181,10.1,10.1,31,0.00,,,0.00,VWS V13.01,2013-09-10 18:40:00,
2013-09-10 13:41:00,93.7,58.6,29.12,South,178,8.7,8.7,31,0.00,,,0.00,VWS V13.01,2013-09-10 18:41:00,
2013-09-10 13:42:00,95.0,59.7,29.12,South,191,12.3,12.3,31,0.00,,,0.00,VWS V13.01,2013-09-10 18:42:00,
2013-09-10 13:43:00,96.1,60.6,29.12,SSW,194,5.4,5.4,31,0.00,,,0.00,VWS V13.01,2013-09-10 18:43:00,
2013-09-10 13:44:00,96.4,60.9,29.12,South,185,8.1,8.1,31,0.00,,,0.00,VWS V13.01,2013-09-10 18:44:00,
2013-09-10 13:45:00,97.5,55.8,29.12,South,173,5.4,5.4,25,0.00,,,0.00,VWS V13.01,2013-09-10 18:45:00,
2013-09-10 13:46:00,98.6,56.7,29.12,SSW,203,5.8,5.8,25,0.00,,,0.00,VWS V13.01,2013-09-10 18:46:00,
2013-09-10 13:47:00,97.9,56.1,29.12,SW,214,10.5,10.5,25,0.00,,,0.00,VWS V13.01,2013-09-10 18:47:00,
2013-09-10 13:48:00,97.5,55.8,29.12,SW,214,7.6,7.6,25,0.00,,,0.00,VWS V13.01,2013-09-10 18:48:00,
2013-09-10 13:49:00,99.1,57.2,29.12,SSE,167,3.1,3.1,25,0.00,,,0.00,VWS V13.01,2013-09-10 18:49:00,
2013-09-10 13:50:00,96.3,60.7,29.12,SSE,168,8.1,8.1,31,0.00,,,0.00,VWS V13.01,2013-09-10 18:50:00,
2013-09-10 13:51:00,96.8,55.2,29.12,South,182,8.1,8.1,25,0.00,,,0.00,VWS V13.01,2013-09-10 18:51:00,
2013-09-10 13:52:00,96.1,60.6,29.12,SSW,209,8.3,8.3,31,0.00,,,0.00,VWS V13.01,2013-09-10 18:52:00,
2013-09-10 13:53:00,96.8,55.2,29.12,SSW,194,5.8,5.8,25,0.00,,,0.00,VWS V13.01,2013-09-10 18:53:00,
2013-09-10 13:54:00,96.3,60.7,29.12,South,187,10.5,10.5,31,0.00,,,0.00,VWS V13.01,2013-09-10 18:54:00,
2013-09-10 13:55:00,97.2,55.5,29.12,South,189,8.1,8.1,25,0.00,,,0.00,VWS V13.01,2013-09-10 18:55:00,
2013-09-10 13:56:00,96.3,60.7,29.12,SSW,196,13.2,13.2,31,0.00,,,0.00,VWS V13.01,2013-09-10 18:56:00,
2013-09-10 13:57:00,95.0,59.7,29.12,SSW,193,10.5,10.5,31,0.00,,,0.00,VWS V13.01,2013-09-10 18:57:00,
2013-09-10 13:58:00,95.2,59.8,29.12,SSW,194,9.2,9.2,31,0.00,,,0.00,VWS V13.01,2013-09-10 18:58:00,
2013-09-10 13:59:00,95.7,60.3,29.12,SSW,202,7.2,7.2,31,0.00,,,0.00,VWS V13.01,2013-09-10 18:59:00,
2013-09-10 14:00:00,95.7,60.3,29.12,South,190,6.3,6.3,31,0.00,,,0.00,VWS V13.01,2013-09-10 19:00:00,
2013-09-10 14:01:00,95.9,60.4,29.12,South,177,5.8,5.8,31,0.00,,,0.00,VWS V13.01,2013-09-10 19:01:00,
2013-09-10 14:02:00,96.1,60.6,29.12,SSW,205,3.6,3.6,31,0.00,,,0.00,VWS V13.01,2013-09-10 19:02:00,
2013-09-10 14:03:00,96.3,60.7,29.12,SSW,194,4.5,4.5,31,0.00,,,0.00,VWS V13.01,2013-09-10 19:03:00,
2013-09-10 14:04:00,95.7,60.3,29.12,SSE,152,11.4,11.4,31,0.00,,,0.00,VWS V13.01,2013-09-10 19:04:00,
2013-09-10 14:05:00,95.7,60.3,29.12,South,181,6.7,6.7,31,0.00,,,0.00,VWS V13.01,2013-09-10 19:05:00,
2013-09-10 14:06:00,93.7,58.6,29.12,SSE,151,2.7,2.7,31,0.00,,,0.00,VWS V13.01,2013-09-10 19:06:00,
2013-09-10 14:07:00,95.5,60.1,29.12,South,171,4.5,4.5,31,0.00,,,0.00,VWS V13.01,2013-09-10 19:07:00,
2013-09-10 14:08:00,95.5,60.1,29.12,South,185,3.1,3.1,31,0.00,,,0.00,VWS V13.01,2013-09-10 19:08:00,
2013-09-10 14:09:00,95.9,60.4,29.12,SW,214,6.3,6.3,31,0.00,,,0.00,VWS V13.01,2013-09-10 19:09:00,
2013-09-10 14:10:00,96.1,60.6,29.12,South,170,5.4,5.4,31,0.00,,,0.00,VWS V13.01,2013-09-10 19:10:00,
2013-09-10 14:11:00,96.3,60.7,29.12,SSE,164,5.4,5.4,31,0.00,,,0.00,VWS V13.01,2013-09-10 19:11:00,
2013-09-10 14:12:00,96.4,60.9,29.12,South,190,12.8,12.8,31,0.00,,,0.00,VWS V13.01,2013-09-10 19:12:00,
2013-09-10 14:13:00,95.4,60.0,29.12,South,186,8.1,8.1,31,0.00,,,0.00,VWS V13.01,2013-09-10 19:13:00,
2013-09-10 14:14:00,94.8,59.5,29.12,South,178,5.8,5.8,31,0.00,,,0.00,VWS V13.01,2013-09-10 19:14:00,
2013-09-10 14:15:00,95.4,60.0,29.12,South,173,8.1,8.1,31,0.00,,,0.00,VWS V13.01,2013-09-10 19:15:00,
2013-09-10 14:16:00,95.9,60.4,29.12,South,176,10.1,10.1,31,0.00,,,0.00,VWS V13.01,2013-09-10 19:16:00,
2013-09-10 14:17:00,94.6,59.3,29.12,SSW,193,14.1,14.1,31,0.00,,,0.00,VWS V13.01,2013-09-10 19:17:00,
2013-09-10 14:18:00,94.6,59.3,29.12,South,187,13.2,13.2,31,0.00,,,0.00,VWS V13.01,2013-09-10 19:18:00,
2013-09-10 14:19:00,94.3,59.0,29.12,SSW,200,10.5,10.5,31,0.00,,,0.00,VWS V13.01,2013-09-10 19:19:00,
2013-09-10 14:20:00,94.6,59.3,29.12,South,185,14.5,14.5,31,0.00,,,0.00,VWS V13.01,2013-09-10 19:20:00,
2013-09-10 14:21:00,94.5,59.2,29.12,South,186,6.7,6.7,31,0.00,,,0.00,VWS V13.01,2013-09-10 19:21:00,
2013-09-10 14:22:00,94.1,58.9,29.12,South,189,13.6,13.6,31,0.00,,,0.00,VWS V13.01,2013-09-10 19:22:00,
2013-09-10 14:23:00,94.1,58.9,29.12,South,182,11.0,11.0,31,0.00,,,0.00,VWS V13.01,2013-09-10 19:23:00,
2013-09-10 14:24:00,93.7,58.6,29.12,SSW,192,8.7,8.7,31,0.00,,,0.00,VWS V13.01,2013-09-10 19:24:00,
2013-09-10 14:25:00,94.3,59.0,29.12,South,191,12.8,12.8,31,0.00,,,0.00,VWS V13.01,2013-09-10 19:25:00,
2013-09-10 14:26:00,94.6,59.3,29.12,South,183,15.0,15.0,31,0.00,,,0.00,VWS V13.01,2013-09-10 19:26:00,
2013-09-10 14:27:00,94.3,59.0,29.12,South,186,12.8,12.8,31,0.00,,,0.00,VWS V13.01,2013-09-10 19:27:00,
2013-09-10 14:28:00,94.1,58.9,29.12,South,178,13.2,13.2,31,0.00,,,0.00,VWS V13.01,2013-09-10 19:28:00,
2013-09-10 14:29:00,94.1,58.9,29.12,SSW,200,10.5,10.5,31,0.00,,,0.00,VWS V13.01,2013-09-10 19:29:00,
2013-09-10 14:30:00,94.3,59.0,29.12,South,181,8.1,8.1,31,0.00,,,0.00,VWS V13.01,2013-09-10 19:30:00,
2013-09-10 14:31:00,94.5,59.2,29.12,South,179,8.1,8.1,31,0.00,,,0.00,VWS V13.01,2013-09-10 19:31:00,
2013-09-10 14:32:00,94.6,59.3,29.12,South,188,8.3,8.3,31,0.00,,,0.00,VWS V13.01,2013-09-10 19:32:00,
2013-09-10 14:33:00,94.5,59.2,29.12,South,187,11.9,11.9,31,0.00,,,0.00,VWS V13.01,2013-09-10 19:33:00,
2013-09-10 14:34:00,93.9,58.7,29.12,South,185,13.2,13.2,31,0.00,,,0.00,VWS V13.01,2013-09-10 19:34:00,
2013-09-10 14:35:00,94.3,59.0,29.12,SW,221,3.1,3.1,31,0.00,,,0.00,VWS V13.01,2013-09-10 19:35:00,
2013-09-10 14:36:00,94.5,59.2,29.12,SSW,207,8.1,8.1,31,0.00,,,0.00,VWS V13.01,2013-09-10 19:36:00,
2013-09-10 14:37:00,94.5,59.2,29.12,South,178,15.0,15.0,31,0.00,,,0.00,VWS V13.01,2013-09-10 19:37:00,
2013-09-10 14:38:00,94.8,59.5,29.12,SSW,206,8.3,8.3,31,0.00,,,0.00,VWS V13.01,2013-09-10 19:38:00,
2013-09-10 14:39:00,94.8,59.5,29.12,SSW,202,7.6,7.6,31,0.00,,,0.00,VWS V13.01,2013-09-10 19:39:00,
2013-09-10 14:40:00,95.0,59.7,29.12,SSW,194,5.8,5.8,31,0.00,,,0.00,VWS V13.01,2013-09-10 19:40:00,
2013-09-10 14:41:00,95.0,59.7,29.12,South,178,13.6,13.6,31,0.00,,,0.00,VWS V13.01,2013-09-10 19:41:00,
2013-09-10 14:42:00,94.5,59.2,29.12,SSW,194,12.3,12.3,31,0.00,,,0.00,VWS V13.01,2013-09-10 19:42:00,
2013-09-10 14:43:00,94.6,59.3,29.12,South,190,5.4,5.4,31,0.00,,,0.00,VWS V13.01,2013-09-10 19:43:00,
2013-09-10 14:44:00,93.9,58.7,29.12,SSW,195,15.4,15.4,31,0.00,,,0.00,VWS V13.01,2013-09-10 19:44:00,
2013-09-10 14:45:00,94.5,59.2,29.12,South,171,4.0,4.0,31,0.00,,,0.00,VWS V13.01,2013-09-10 19:45:00,
2013-09-10 14:46:00,94.6,59.3,29.12,South,183,6.3,6.3,31,0.00,,,0.00,VWS V13.01,2013-09-10 19:46:00,
2013-09-10 14:47:00,94.1,58.9,29.12,SSW,192,11.0,11.0,31,0.00,,,0.00,VWS V13.01,2013-09-10 19:47:00,
2013-09-10 14:48:00,93.9,58.7,29.12,South,174,13.2,13.2,31,0.00,,,0.00,VWS V13.01,2013-09-10 19:48:00,
2013-09-10 14:49:00,93.9,58.7,29.12,South,188,12.3,12.3,31,0.00,,,0.00,VWS V13.01,2013-09-10 19:49:00,
2013-09-10 14:50:00,94.5,59.2,29.12,SSW,193,10.5,10.5,31,0.00,,,0.00,VWS V13.01,2013-09-10 19:50:00,
2013-09-10 14:51:00,94.3,59.0,29.12,South,188,11.0,11.0,31,0.00,,,0.00,VWS V13.01,2013-09-10 19:51:00,
2013-09-10 14:52:00,94.5,59.2,29.12,South,173,13.2,13.2,31,0.00,,,0.00,VWS V13.01,2013-09-10 19:52:00,
2013-09-10 14:53:00,93.9,58.7,29.12,South,185,13.2,13.2,31,0.00,,,0.00,VWS V13.01,2013-09-10 19:53:00,
2013-09-10 14:54:00,93.2,58.1,29.12,South,191,12.8,12.8,31,0.00,,,0.00,VWS V13.01,2013-09-10 19:54:00,
2013-09-10 14:55:00,93.4,58.2,29.12,South,181,8.3,8.3,31,0.00,,,0.00,VWS V13.01,2013-09-10 19:55:00,
2013-09-10 14:56:00,93.7,58.6,29.12,South,187,8.3,8.3,31,0.00,,,0.00,VWS V13.01,2013-09-10 19:56:00,
2013-09-10 14:57:00,94.1,58.9,29.12,South,171,13.6,13.6,31,0.00,,,0.00,VWS V13.01,2013-09-10 19:57:00,
2013-09-10 14:58:00,93.9,58.7,29.12,South,181,12.8,12.8,31,0.00,,,0.00,VWS V13.01,2013-09-10 19:58:00,
2013-09-10 14:59:00,93.9,58.7,29.12,South,190,12.8,12.8,31,0.00,,,0.00,VWS V13.01,2013-09-10 19:59:00,
2013-09-10 15:00:00,93.7,58.6,29.12,SSW,204,10.5,10.5,31,0.00,,,0.00,VWS V13.01,2013-09-10 20:00:00,
2013-09-10 15:01:00,94.3,59.0,29.12,SSW,192,5.8,5.8,31,0.00,,,0.00,VWS V13.01,2013-09-10 20:01:00,
2013-09-10 15:02:00,93.9,58.7,29.12,South,190,11.9,11.9,31,0.00,,,0.00,VWS V13.01,2013-09-10 20:02:00,
2013-09-10 15:03:00,94.3,59.0,29.12,SSW,197,8.7,8.7,31,0.00,,,0.00,VWS V13.01,2013-09-10 20:03:00,
2013-09-10 15:04:00,93.6,58.4,29.12,SSW,203,6.7,6.7,31,0.00,,,0.00,VWS V13.01,2013-09-10 20:04:00,
2013-09-10 15:05:00,93.4,58.2,29.12,South,184,10.1,10.1,31,0.00,,,0.00,VWS V13.01,2013-09-10 20:05:00,
2013-09-10 15:06:00,93.0,57.9,29.12,South,183,11.0,11.0,31,0.00,,,0.00,VWS V13.01,2013-09-10 20:06:00,
2013-09-10 15:07:00,92.8,57.8,29.12,South,185,10.1,10.1,31,0.00,,,0.00,VWS V13.01,2013-09-10 20:07:00,
2013-09-10 15:08:00,93.0,57.9,29.12,SSW,196,5.4,5.4,31,0.00,,,0.00,VWS V13.01,2013-09-10 20:08:00,
2013-09-10 15:09:00,93.2,58.1,29.12,South,170,8.1,8.1,31,0.00,,,0.00,VWS V13.01,2013-09-10 20:09:00,
2013-09-10 15:10:00,93.4,58.2,29.12,South,189,5.8,5.8,31,0.00,,,0.00,VWS V13.01,2013-09-10 20:10:00,
2013-09-10 15:11:00,93.7,58.6,29.12,SSW,192,8.1,8.1,31,0.00,,,0.00,VWS V13.01,2013-09-10 20:11:00,
2013-09-10 15:12:00,94.1,58.9,29.12,SSW,200,5.4,5.4,31,0.00,,,0.00,VWS V13.01,2013-09-10 20:12:00,
2013-09-10 15:13:00,94.1,58.9,29.12,SSW,201,11.0,11.0,31,0.00,,,0.00,VWS V13.01,2013-09-10 20:13:00,
2013-09-10 15:14:00,93.9,58.7,29.12,South,185,8.1,8.1,31,0.00,,,0.00,VWS V13.01,2013-09-10 20:14:00,
2013-09-10 15:15:00,94.5,59.2,29.12,South,174,6.3,6.3,31,0.00,,,0.00,VWS V13.01,2013-09-10 20:15:00,
2013-09-10 15:16:00,93.7,58.6,29.12,South,188,8.1,8.1,31,0.00,,,0.00,VWS V13.01,2013-09-10 20:16:00,
2013-09-10 15:17:00,93.7,58.6,29.12,South,182,11.0,11.0,31,0.00,,,0.00,VWS V13.01,2013-09-10 20:17:00,
2013-09-10 15:18:00,93.6,58.4,29.12,South,182,10.5,10.5,31,0.00,,,0.00,VWS V13.01,2013-09-10 20:18:00,
2013-09-10 15:19:00,93.2,58.1,29.12,South,178,12.3,12.3,31,0.00,,,0.00,VWS V13.01,2013-09-10 20:19:00,
2013-09-10 15:20:00,93.4,58.2,29.12,South,187,8.7,8.7,31,0.00,,,0.00,VWS V13.01,2013-09-10 20:20:00,
2013-09-10 15:21:00,93.2,58.1,29.12,South,182,8.1,8.1,31,0.00,,,0.00,VWS V13.01,2013-09-10 20:21:00,
2013-09-10 15:22:00,93.0,57.9,29.12,South,191,2.7,2.7,31,0.00,,,0.00,VWS V13.01,2013-09-10 20:22:00,
2013-09-10 15:23:00,93.4,58.2,29.12,South,185,8.7,8.7,31,0.00,,,0.00,VWS V13.01,2013-09-10 20:23:00,
2013-09-10 15:24:00,93.7,58.6,29.12,SSW,199,10.1,10.1,31,0.00,,,0.00,VWS V13.01,2013-09-10 20:24:00,
2013-09-10 15:25:00,93.4,58.2,29.12,South,185,10.5,10.5,31,0.00,,,0.00,VWS V13.01,2013-09-10 20:25:00,
2013-09-10 15:26:00,93.2,58.1,29.12,South,186,11.0,11.0,31,0.00,,,0.00,VWS V13.01,2013-09-10 20:26:00,
2013-09-10 15:27:00,92.8,57.8,29.12,SSW,198,12.8,12.8,31,0.00,,,0.00,VWS V13.01,2013-09-10 20:27:00,
2013-09-10 15:28:00,92.7,57.6,29.12,South,187,13.6,13.6,31,0.00,,,0.00,VWS V13.01,2013-09-10 20:28:00,
2013-09-10 15:29:00,92.5,57.5,29.12,South,186,15.4,15.4,31,0.00,,,0.00,VWS V13.01,2013-09-10 20:29:00,
2013-09-10 15:30:00,92.3,57.3,29.12,SSW,195,10.5,10.5,31,0.00,,,0.00,VWS V13.01,2013-09-10 20:30:00,
2013-09-10 15:31:00,92.3,57.3,29.12,South,172,10.1,10.1,31,0.00,,,0.00,VWS V13.01,2013-09-10 20:31:00,
2013-09-10 15:32:00,92.5,57.5,29.12,SSW,193,11.0,11.0,31,0.00,,,0.00,VWS V13.01,2013-09-10 20:32:00,
2013-09-10 15:33:00,93.0,57.9,29.12,South,184,8.7,8.7,31,0.00,,,0.00,VWS V13.01,2013-09-10 20:33:00,
2013-09-10 15:34:00,93.4,58.2,29.12,South,190,8.3,8.3,31,0.00,,,0.00,VWS V13.01,2013-09-10 20:34:00,
2013-09-10 15:35:00,93.6,58.4,29.12,South,180,5.8,5.8,31,0.00,,,0.00,VWS V13.01,2013-09-10 20:35:00,
2013-09-10 15:36:00,93.9,58.7,29.12,South,180,8.3,8.3,31,0.00,,,0.00,VWS V13.01,2013-09-10 20:36:00,
2013-09-10 15:37:00,93.6,58.4,29.12,SSW,210,4.0,4.0,31,0.00,,,0.00,VWS V13.01,2013-09-10 20:37:00,
2013-09-10 15:38:00,93.9,58.7,29.12,SSW,195,8.3,8.3,31,0.00,,,0.00,VWS V13.01,2013-09-10 20:38:00,
2013-09-10 15:39:00,94.1,58.9,29.12,SSE,168,8.3,8.3,31,0.00,,,0.00,VWS V13.01,2013-09-10 20:39:00,
2013-09-10 15:40:00,93.9,58.7,29.12,South,185,11.0,11.0,31,0.00,,,0.00,VWS V13.01,2013-09-10 20:40:00,
2013-09-10 15:41:00,93.7,58.6,29.12,South,181,10.1,10.1,31,0.00,,,0.00,VWS V13.01,2013-09-10 20:41:00,
2013-09-10 15:42:00,93.9,58.7,29.12,South,183,10.5,10.5,31,0.00,,,0.00,VWS V13.01,2013-09-10 20:42:00,
2013-09-10 15:43:00,93.4,58.2,29.12,South,189,10.5,10.5,31,0.00,,,0.00,VWS V13.01,2013-09-10 20:43:00,
2013-09-10 15:44:00,93.4,58.2,29.12,South,176,21.5,21.5,31,0.00,,,0.00,VWS V13.01,2013-09-10 20:44:00,
2013-09-10 15:45:00,93.6,58.4,29.12,SSW,195,11.4,11.4,31,0.00,,,0.00,VWS V13.01,2013-09-10 20:45:00,
2013-09-10 15:46:00,93.4,58.2,29.12,South,184,13.2,13.2,31,0.00,,,0.00,VWS V13.01,2013-09-10 20:46:00,
2013-09-10 15:47:00,93.2,58.1,29.12,South,183,12.3,12.3,31,0.00,,,0.00,VWS V13.01,2013-09-10 20:47:00,
2013-09-10 15:48:00,93.4,58.2,29.12,South,182,14.1,14.1,31,0.00,,,0.00,VWS V13.01,2013-09-10 20:48:00,
2013-09-10 15:49:00,92.7,57.6,29.12,SSW,204,10.1,10.1,31,0.00,,,0.00,VWS V13.01,2013-09-10 20:49:00,
2013-09-10 15:50:00,92.8,57.8,29.12,South,190,8.3,8.3,31,0.00,,,0.00,VWS V13.01,2013-09-10 20:50:00,
2013-09-10 15:51:00,92.8,57.8,29.12,South,170,8.3,8.3,31,0.00,,,0.00,VWS V13.01,2013-09-10 20:51:00,
2013-09-10 15:52:00,93.0,57.9,29.12,South,185,8.7,8.7,31,0.00,,,0.00,VWS V13.01,2013-09-10 20:52:00,
2013-09-10 15:53:00,92.8,57.8,29.12,South,181,10.1,10.1,31,0.00,,,0.00,VWS V13.01,2013-09-10 20:53:00,
2013-09-10 15:54:00,93.0,57.9,29.12,South,188,8.3,8.3,31,0.00,,,0.00,VWS V13.01,2013-09-10 20:54:00,
2013-09-10 15:55:00,93.2,58.1,29.12,SSW,198,8.3,8.3,31,0.00,,,0.00,VWS V13.01,2013-09-10 20:55:00,
2013-09-10 15:56:00,93.0,57.9,29.12,SSW,194,18.8,18.8,31,0.00,,,0.00,VWS V13.01,2013-09-10 20:56:00,
2013-09-10 15:57:00,93.2,58.1,29.12,SSW,193,12.3,12.3,31,0.00,,,0.00,VWS V13.01,2013-09-10 20:57:00,
2013-09-10 15:58:00,92.8,57.8,29.12,SSW,196,12.3,12.3,31,0.00,,,0.00,VWS V13.01,2013-09-10 20:58:00,
2013-09-10 15:59:00,92.5,57.5,29.12,South,191,11.4,11.4,31,0.00,,,0.00,VWS V13.01,2013-09-10 20:59:00,
2013-09-10 16:00:00,92.8,57.8,29.12,South,178,5.4,5.4,31,0.00,,,0.00,VWS V13.01,2013-09-10 21:00:00,
2013-09-10 16:01:00,92.8,57.8,29.12,South,191,8.3,8.3,31,0.00,,,0.00,VWS V13.01,2013-09-10 21:01:00,
2013-09-10 16:02:00,92.8,57.8,29.12,SSW,207,8.1,8.1,31,0.00,,,0.00,VWS V13.01,2013-09-10 21:02:00,
2013-09-10 16:03:00,93.2,58.1,29.12,SSW,193,10.5,10.5,31,0.00,,,0.00,VWS V13.01,2013-09-10 21:03:00,
2013-09-10 16:04:00,93.0,57.9,29.12,South,174,8.1,8.1,31,0.00,,,0.00,VWS V13.01,2013-09-10 21:04:00,
2013-09-10 16:05:00,93.4,58.2,29.12,SSW,193,8.7,8.7,31,0.00,,,0.00,VWS V13.01,2013-09-10 21:05:00,
2013-09-10 16:06:00,93.4,58.2,29.12,South,185,10.5,10.5,31,0.00,,,0.00,VWS V13.01,2013-09-10 21:06:00,
2013-09-10 16:07:00,93.4,58.2,29.12,South,176,8.3,8.3,31,0.00,,,0.00,VWS V13.01,2013-09-10 21:07:00,
2013-09-10 16:08:00,93.2,58.1,29.12,South,190,12.8,12.8,31,0.00,,,0.00,VWS V13.01,2013-09-10 21:08:00,
2013-09-10 16:09:00,93.0,57.9,29.09,South,185,12.8,12.8,31,0.00,,,0.00,VWS V13.01,2013-09-10 21:09:00,
2013-09-10 16:10:00,92.5,57.5,29.09,South,190,10.5,10.5,31,0.00,,,0.00,VWS V13.01,2013-09-10 21:10:00,
2013-09-10 16:11:00,92.5,57.5,29.09,SSE,166,10.1,10.1,31,0.00,,,0.00,VWS V13.01,2013-09-10 21:11:00,
2013-09-10 16:12:00,92.5,57.5,29.09,SSW,195,11.0,11.0,31,0.00,,,0.00,VWS V13.01,2013-09-10 21:12:00,
2013-09-10 16:13:00,92.3,57.3,29.09,South,186,13.2,13.2,31,0.00,,,0.00,VWS V13.01,2013-09-10 21:13:00,
2013-09-10 16:14:00,93.0,57.9,29.09,South,190,12.8,12.8,31,0.00,,,0.00,VWS V13.01,2013-09-10 21:14:00,
2013-09-10 16:15:00,93.0,57.9,29.09,SSW,192,13.2,13.2,31,0.00,,,0.00,VWS V13.01,2013-09-10 21:15:00,
2013-09-10 16:16:00,93.0,57.9,29.09,SSW,197,11.9,11.9,31,0.00,,,0.00,VWS V13.01,2013-09-10 21:16:00,
2013-09-10 16:17:00,93.0,57.9,29.09,SSW,198,14.1,14.1,31,0.00,,,0.00,VWS V13.01,2013-09-10 21:17:00,
2013-09-10 16:18:00,92.8,57.8,29.09,SSW,200,11.0,11.0,31,0.00,,,0.00,VWS V13.01,2013-09-10 21:18:00,
2013-09-10 16:19:00,92.8,57.8,29.09,South,174,11.0,11.0,31,0.00,,,0.00,VWS V13.01,2013-09-10 21:19:00,
2013-09-10 16:20:00,92.8,57.8,29.09,SSW,196,11.0,11.0,31,0.00,,,0.00,VWS V13.01,2013-09-10 21:20:00,
2013-09-10 16:21:00,93.2,58.1,29.09,South,174,16.8,16.8,31,0.00,,,0.00,VWS V13.01,2013-09-10 21:21:00,
2013-09-10 16:22:00,93.4,58.2,29.09,SSE,164,12.3,12.3,31,0.00,,,0.00,VWS V13.01,2013-09-10 21:22:00,
2013-09-10 16:23:00,93.2,58.1,29.09,South,174,12.8,12.8,31,0.00,,,0.00,VWS V13.01,2013-09-10 21:23:00,
2013-09-10 16:24:00,93.2,58.1,29.09,South,191,8.3,8.3,31,0.00,,,0.00,VWS V13.01,2013-09-10 21:24:00,
2013-09-10 16:25:00,93.2,58.1,29.09,South,187,11.0,11.0,31,0.00,,,0.00,VWS V13.01,2013-09-10 21:25:00,
2013-09-10 16:26:00,92.8,57.8,29.09,SSW,200,8.1,8.1,31,0.00,,,0.00,VWS V13.01,2013-09-10 21:26:00,
2013-09-10 16:27:00,93.2,58.1,29.09,South,177,12.8,12.8,31,0.00,,,0.00,VWS V13.01,2013-09-10 21:27:00,
2013-09-10 16:28:00,92.3,57.3,29.09,South,188,12.8,12.8,31,0.00,,,0.00,VWS V13.01,2013-09-10 21:28:00,
2013-09-10 16:29:00,92.5,57.5,29.09,SSW,197,5.8,5.8,31,0.00,,,0.00,VWS V13.01,2013-09-10 21:29:00,
2013-09-10 16:30:00,92.3,57.3,29.09,South,180,9.6,9.6,31,0.00,,,0.00,VWS V13.01,2013-09-10 21:30:00,
2013-09-10 16:31:00,92.7,57.6,29.09,SSW,196,11.0,11.0,31,0.00,,,0.00,VWS V13.01,2013-09-10 21:31:00,
2013-09-10 16:32:00,93.0,57.9,29.09,South,177,12.3,12.3,31,0.00,,,0.00,VWS V13.01,2013-09-10 21:32:00,
2013-09-10 16:33:00,93.2,58.1,29.09,South,182,10.5,10.5,31,0.00,,,0.00,VWS V13.01,2013-09-10 21:33:00,
2013-09-10 16:34:00,93.4,58.2,29.09,SSW,197,12.8,12.8,31,0.00,,,0.00,VWS V13.01,2013-09-10 21:34:00,
2013-09-10 16:35:00,93.0,57.9,29.09,South,181,14.5,14.5,31,0.00,,,0.00,VWS V13.01,2013-09-10 21:35:00,
2013-09-10 16:36:00,92.7,57.6,29.09,South,180,8.7,8.7,31,0.00,,,0.00,VWS V13.01,2013-09-10 21:36:00,
2013-09-10 16:37:00,93.0,57.9,29.09,South,188,5.8,5.8,31,0.00,,,0.00,VWS V13.01,2013-09-10 21:37:00,
2013-09-10 16:38:00,93.0,57.9,29.09,SSW,212,5.4,5.4,31,0.00,,,0.00,VWS V13.01,2013-09-10 21:38:00,
2013-09-10 16:39:00,93.0,57.9,29.09,SSW,199,8.3,8.3,31,0.00,,,0.00,VWS V13.01,2013-09-10 21:39:00,
2013-09-10 16:40:00,92.8,57.8,29.09,South,187,9.6,9.6,31,0.00,,,0.00,VWS V13.01,2013-09-10 21:40:00,
2013-09-10 16:41:00,92.7,57.6,29.09,SSW,193,11.0,11.0,31,0.00,,,0.00,VWS V13.01,2013-09-10 21:41:00,
2013-09-10 16:42:00,92.7,57.6,29.09,South,179,8.1,8.1,31,0.00,,,0.00,VWS V13.01,2013-09-10 21:42:00,
2013-09-10 16:43:00,93.0,57.9,29.09,South,185,13.6,13.6,31,0.00,,,0.00,VWS V13.01,2013-09-10 21:43:00,
2013-09-10 16:44:00,92.5,57.5,29.09,SSW,192,18.3,18.3,31,0.00,,,0.00,VWS V13.01,2013-09-10 21:44:00,
2013-09-10 16:45:00,92.5,57.5,29.09,SSW,192,18.3,18.3,31,0.00,,,0.00,VWS V13.01,2013-09-10 21:45:00,
2013-09-10 16:46:00,92.5,57.5,29.09,South,191,11.0,11.0,31,0.00,,,0.00,VWS V13.01,2013-09-10 21:46:00,
2013-09-10 16:47:00,92.5,57.5,29.09,SSW,202,10.5,10.5,31,0.00,,,0.00,VWS V13.01,2013-09-10 21:47:00,
2013-09-10 16:48:00,92.5,57.5,29.09,SSW,194,15.0,15.0,31,0.00,,,0.00,VWS V13.01,2013-09-10 21:48:00,
2013-09-10 16:49:00,93.0,57.9,29.09,SSW,197,11.0,11.0,31,0.00,,,0.00,VWS V13.01,2013-09-10 21:49:00,
2013-09-10 16:50:00,93.0,57.9,29.09,South,191,8.7,8.7,31,0.00,,,0.00,VWS V13.01,2013-09-10 21:50:00,
2013-09-10 16:51:00,92.8,57.8,29.09,South,191,10.1,10.1,31,0.00,,,0.00,VWS V13.01,2013-09-10 21:51:00,
2013-09-10 16:52:00,93.0,57.9,29.09,SSW,196,11.0,11.0,31,0.00,,,0.00,VWS V13.01,2013-09-10 21:52:00,
2013-09-10 16:53:00,92.7,57.6,29.09,South,190,12.8,12.8,31,0.00,,,0.00,VWS V13.01,2013-09-10 21:53:00,
2013-09-10 16:54:00,92.7,57.6,29.09,South,178,15.0,15.0,31,0.00,,,0.00,VWS V13.01,2013-09-10 21:54:00,
2013-09-10 16:55:00,92.7,57.6,29.09,SSW,202,10.5,10.5,31,0.00,,,0.00,VWS V13.01,2013-09-10 21:55:00,
2013-09-10 16:56:00,92.3,57.3,29.09,South,184,14.1,14.1,31,0.00,,,0.00,VWS V13.01,2013-09-10 21:56:00,
2013-09-10 16:57:00,92.1,57.2,29.09,SSW,205,12.8,12.8,31,0.00,,,0.00,VWS V13.01,2013-09-10 21:57:00,
2013-09-10 16:58:00,92.1,57.2,29.09,SSW,205,12.8,12.8,31,0.00,,,0.00,VWS V13.01,2013-09-10 21:58:00,
2013-09-10 16:59:00,91.9,57.0,29.09,SSW,197,11.0,11.0,31,0.00,,,0.00,VWS V13.01,2013-09-10 21:59:00,
2013-09-10 17:00:00,92.3,57.3,29.09,South,191,12.8,12.8,31,0.00,,,0.00,VWS V13.01,2013-09-10 22:00:00,
2013-09-10 17:01:00,92.3,57.3,29.09,South,190,11.0,11.0,31,0.00,,,0.00,VWS V13.01,2013-09-10 22:01:00,
2013-09-10 17:02:00,92.3,57.3,29.09,South,190,11.0,11.0,31,0.00,,,0.00,VWS V13.01,2013-09-10 22:02:00,
2013-09-10 17:03:00,92.5,57.5,29.09,South,185,11.0,11.0,31,0.00,,,0.00,VWS V13.01,2013-09-10 22:03:00,
2013-09-10 17:04:00,92.5,57.5,29.09,South,185,11.0,11.0,31,0.00,,,0.00,VWS V13.01,2013-09-10 22:04:00,
2013-09-10 17:05:00,92.7,57.6,29.09,South,187,10.5,10.5,31,0.00,,,0.00,VWS V13.01,2013-09-10 22:05:00,
2013-09-10 17:06:00,92.7,57.6,29.09,SSW,206,10.5,10.5,31,0.00,,,0.00,VWS V13.01,2013-09-10 22:06:00,
2013-09-10 17:07:00,92.3,57.3,29.09,SSW,197,11.0,11.0,31,0.00,,,0.00,VWS V13.01,2013-09-10 22:07:00,
2013-09-10 17:08:00,92.3,57.3,29.09,South,178,6.3,6.3,31,0.00,,,0.00,VWS V13.01,2013-09-10 22:08:00,
2013-09-10 17:09:00,92.7,57.6,29.09,South,191,8.7,8.7,31,0.00,,,0.00,VWS V13.01,2013-09-10 22:09:00,
2013-09-10 17:10:00,92.8,57.8,29.09,SSW,195,11.0,11.0,31,0.00,,,0.00,VWS V13.01,2013-09-10 22:10:00,
2013-09-10 17:11:00,92.8,57.8,29.09,South,190,10.1,10.1,31,0.00,,,0.00,VWS V13.01,2013-09-10 22:11:00,
2013-09-10 17:12:00,92.7,57.6,29.09,South,191,11.0,11.0,31,0.00,,,0.00,VWS V13.01,2013-09-10 22:12:00,
2013-09-10 17:13:00,92.7,57.6,29.09,SSW,194,13.6,13.6,31,0.00,,,0.00,VWS V13.01,2013-09-10 22:13:00,
2013-09-10 17:14:00,92.3,57.3,29.09,SSW,196,13.2,13.2,31,0.00,,,0.00,VWS V13.01,2013-09-10 22:14:00,
2013-09-10 17:15:00,92.5,57.5,29.09,SSW,203,15.0,15.0,31,0.00,,,0.00,VWS V13.01,2013-09-10 22:15:00,
2013-09-10 17:16:00,92.5,57.5,29.09,South,191,11.0,11.0,31,0.00,,,0.00,VWS V13.01,2013-09-10 22:16:00,
2013-09-10 17:17:00,92.3,57.3,29.09,South,189,11.0,11.0,31,0.00,,,0.00,VWS V13.01,2013-09-10 22:17:00,
2013-09-10 17:18:00,92.3,57.3,29.09,SSW,196,5.4,5.4,31,0.00,,,0.00,VWS V13.01,2013-09-10 22:18:00,
2013-09-10 17:19:00,92.3,57.3,29.09,South,187,8.7,8.7,31,0.00,,,0.00,VWS V13.01,2013-09-10 22:19:00,
2013-09-10 17:20:00,92.3,57.3,29.09,SSW,192,9.6,9.6,31,0.00,,,0.00,VWS V13.01,2013-09-10 22:20:00,
2013-09-10 17:21:00,92.1,57.2,29.09,SSW,195,10.5,10.5,31,0.00,,,0.00,VWS V13.01,2013-09-10 22:21:00,
2013-09-10 17:22:00,92.3,57.3,29.09,South,186,7.6,7.6,31,0.00,,,0.00,VWS V13.01,2013-09-10 22:22:00,
2013-09-10 17:23:00,92.5,57.5,29.09,SW,217,5.8,5.8,31,0.00,,,0.00,VWS V13.01,2013-09-10 22:23:00,
2013-09-10 17:24:00,92.3,57.3,29.09,South,186,8.7,8.7,31,0.00,,,0.00,VWS V13.01,2013-09-10 22:24:00,
2013-09-10 17:25:00,91.9,57.0,29.09,South,187,8.1,8.1,31,0.00,,,0.00,VWS V13.01,2013-09-10 22:25:00,
2013-09-10 17:26:00,92.1,57.2,29.09,SSW,194,12.8,12.8,31,0.00,,,0.00,VWS V13.01,2013-09-10 22:26:00,
2013-09-10 17:27:00,91.9,57.0,29.09,SSW,194,7.6,7.6,31,0.00,,,0.00,VWS V13.01,2013-09-10 22:27:00,
2013-09-10 17:28:00,92.1,57.2,29.09,SSW,196,5.4,5.4,31,0.00,,,0.00,VWS V13.01,2013-09-10 22:28:00,
2013-09-10 17:29:00,92.1,57.2,29.09,SSW,194,10.1,10.1,31,0.00,,,0.00,VWS V13.01,2013-09-10 22:29:00,
2013-09-10 17:30:00,92.1,57.2,29.09,SSW,195,4.0,4.0,31,0.00,,,0.00,VWS V13.01,2013-09-10 22:30:00,
2013-09-10 17:31:00,92.1,57.2,29.09,South,187,4.0,4.0,31,0.00,,,0.00,VWS V13.01,2013-09-10 22:31:00,
2013-09-10 17:32:00,92.1,57.2,29.09,South,190,5.4,5.4,31,0.00,,,0.00,VWS V13.01,2013-09-10 22:32:00,
2013-09-10 17:33:00,92.3,57.3,29.09,South,179,4.9,4.9,31,0.00,,,0.00,VWS V13.01,2013-09-10 22:33:00,
2013-09-10 17:34:00,92.1,57.2,29.09,SSW,203,6.3,6.3,31,0.00,,,0.00,VWS V13.01,2013-09-10 22:34:00,
2013-09-10 17:35:00,92.1,57.2,29.09,SSW,193,8.7,8.7,31,0.00,,,0.00,VWS V13.01,2013-09-10 22:35:00,
2013-09-10 17:36:00,91.9,57.0,29.09,South,182,5.4,5.4,31,0.00,,,0.00,VWS V13.01,2013-09-10 22:36:00,
2013-09-10 17:37:00,92.1,57.2,29.09,South,183,8.3,8.3,31,0.00,,,0.00,VWS V13.01,2013-09-10 22:37:00,
2013-09-10 17:38:00,91.9,57.0,29.09,SSW,194,11.0,11.0,31,0.00,,,0.00,VWS V13.01,2013-09-10 22:38:00,
2013-09-10 17:39:00,91.9,57.0,29.09,SSW,192,6.3,6.3,31,0.00,,,0.00,VWS V13.01,2013-09-10 22:39:00,
2013-09-10 17:40:00,91.9,57.0,29.09,South,184,8.3,8.3,31,0.00,,,0.00,VWS V13.01,2013-09-10 22:40:00,
2013-09-10 17:41:00,91.8,56.9,29.09,South,189,7.6,7.6,31,0.00,,,0.00,VWS V13.01,2013-09-10 22:41:00,
2013-09-10 17:42:00,91.8,56.9,29.09,South,173,8.3,8.3,31,0.00,,,0.00,VWS V13.01,2013-09-10 22:42:00,
2013-09-10 17:43:00,91.8,56.8,29.09,South,188,8.3,8.3,31,0.00,,,0.00,VWS V13.01,2013-09-10 22:43:00,
2013-09-10 17:44:00,91.6,56.7,29.09,SSW,197,10.1,10.1,31,0.00,,,0.00,VWS V13.01,2013-09-10 22:44:00,
2013-09-10 17:45:00,91.6,56.7,29.09,South,188,10.1,10.1,31,0.00,,,0.00,VWS V13.01,2013-09-10 22:45:00,
2013-09-10 17:46:00,91.6,56.7,29.09,South,183,8.3,8.3,31,0.00,,,0.00,VWS V13.01,2013-09-10 22:46:00,
2013-09-10 17:47:00,91.6,56.7,29.09,South,186,6.3,6.3,31,0.00,,,0.00,VWS V13.01,2013-09-10 22:47:00,
2013-09-10 17:48:00,91.6,56.7,29.09,SSW,194,8.1,8.1,31,0.00,,,0.00,VWS V13.01,2013-09-10 22:48:00,
2013-09-10 17:49:00,91.6,56.7,29.09,South,188,8.7,8.7,31,0.00,,,0.00,VWS V13.01,2013-09-10 22:49:00,
2013-09-10 17:50:00,91.6,56.7,29.09,South,177,10.1,10.1,31,0.00,,,0.00,VWS V13.01,2013-09-10 22:50:00,
2013-09-10 17:51:00,91.6,56.7,29.09,South,178,10.1,10.1,31,0.00,,,0.00,VWS V13.01,2013-09-10 22:51:00,
2013-09-10 17:52:00,91.4,56.5,29.09,SSW,200,11.0,11.0,31,0.00,,,0.00,VWS V13.01,2013-09-10 22:52:00,
2013-09-10 17:53:00,91.4,56.5,29.09,SSW,194,13.2,13.2,31,0.00,,,0.00,VWS V13.01,2013-09-10 22:53:00,
2013-09-10 17:54:00,91.2,61.3,29.09,South,187,8.1,8.1,37,0.00,,,0.00,VWS V13.01,2013-09-10 22:54:00,
2013-09-10 17:55:00,91.2,61.3,29.09,South,191,8.3,8.3,37,0.00,,,0.00,VWS V13.01,2013-09-10 22:55:00,
2013-09-10 17:56:00,91.4,56.5,29.09,South,186,5.8,5.8,31,0.00,,,0.00,VWS V13.01,2013-09-10 22:56:00,
2013-09-10 17:57:00,91.4,56.5,29.09,South,184,8.7,8.7,31,0.00,,,0.00,VWS V13.01,2013-09-10 22:57:00,
2013-09-10 17:58:00,91.4,56.5,29.09,South,187,8.7,8.7,31,0.00,,,0.00,VWS V13.01,2013-09-10 22:58:00,
2013-09-10 17:59:00,91.2,61.3,29.09,South,177,9.2,9.2,37,0.00,,,0.00,VWS V13.01,2013-09-10 22:59:00,
2013-09-10 18:00:00,91.2,61.3,29.09,South,177,9.2,9.2,37,0.00,,,0.00,VWS V13.01,2013-09-10 23:00:00,
2013-09-10 18:01:00,91.2,61.3,29.09,SSW,195,9.2,9.2,37,0.00,,,0.00,VWS V13.01,2013-09-10 23:01:00,
2013-09-10 18:02:00,91.0,61.2,29.09,South,185,10.1,10.1,37,0.00,,,0.00,VWS V13.01,2013-09-10 23:02:00,
2013-09-10 18:03:00,90.9,61.0,29.09,SSW,196,12.8,12.8,37,0.00,,,0.00,VWS V13.01,2013-09-10 23:03:00,
2013-09-10 18:04:00,90.9,61.0,29.09,South,191,11.0,11.0,37,0.00,,,0.00,VWS V13.01,2013-09-10 23:04:00,